Observation data for Sierra Blanca on 12/08/2018      Previous  Date       Current Mesonet Observations  Soil Data  Daily Summary Page  Observations in Plain Language
KSB1 080600Z 13005KT 04/04 A3017 RMK A01 T00400037  RH  098%=      5-min Rain = 0
KSB1 080601Z 13004KT 04/04 A3016 RMK A01 T00400037  RH  098%=      5-min Rain = 0
KSB1 080602Z 11005KT 04/04 A3016 RMK A01 T00400037  RH  098%=      5-min Rain = 0
KSB1 080603Z 12006KT 04/04 A3016 RMK A01 T00400037  RH  098%=      5-min Rain = 0
KSB1 080604Z 12005KT 04/04 A3016 RMK A01 T00400037  RH  098%=      5-min Rain = 0
KSB1 080605Z 12006KT 04/04 A3016 RMK A01 T00400037  RH  098%=      5-min Rain = 0
KSB1 080606Z 11006KT 04/04 A3016 RMK A01 T00400037  RH  098%=      5-min Rain = 0
KSB1 080607Z 11006KT 04/04 A3016 RMK A01 T00400037  RH  098%=      5-min Rain = 0
KSB1 080608Z 12006KT 04/04 A3016 RMK A01 T00400037  RH  098%=      5-min Rain = 0
KSB1 080609Z 12007KT 04/04 A3016 RMK A01 T00400037  RH  098%=      5-min Rain = 0
KSB1 080610Z 11006KT 04/04 A3016 RMK A01 T00400037  RH  098%=      5-min Rain = 0
KSB1 080611Z 12006KT 04/04 A3015 RMK A01 T00400037  RH  098%=      5-min Rain = 0
KSB1 080612Z 12006KT 04/04 A3015 RMK A01 T00400037  RH  098%=      5-min Rain = 0
KSB1 080613Z 12006KT 04/04 A3015 RMK A01 T00400036  RH  098%=      5-min Rain = 0
KSB1 080614Z 12008KT 04/04 A3015 RMK A01 T00400037  RH  098%=      5-min Rain = 0
KSB1 080615Z 12007KT 04/04 A3015 RMK A01 T00390036  RH  098%=      5-min Rain = 0
KSB1 080616Z 12007KT 04/04 A3015 RMK A01 T00390036  RH  098%=      5-min Rain = 0
KSB1 080617Z 12007KT 04/04 A3015 RMK A01 T00390035  RH  098%=      5-min Rain = 0
KSB1 080618Z 12008KT 04/04 A3015 RMK A01 T00390035  RH  098%=      5-min Rain = 0
KSB1 080619Z 12008KT 04/04 A3015 RMK A01 T00380035  RH  098%=      5-min Rain = 0
KSB1 080620Z 12008KT 04/03 A3015 RMK A01 T00370034  RH  098%=      5-min Rain = 0
KSB1 080621Z 12008KT 04/03 A3015 RMK A01 T00380034  RH  098%=      5-min Rain = 0
KSB1 080622Z 12008KT 04/03 A3015 RMK A01 T00380034  RH  098%=      5-min Rain = 0
KSB1 080623Z 12007KT 04/03 A3015 RMK A01 T00370034  RH  098%=      5-min Rain = 0
KSB1 080624Z 12007KT 04/03 A3015 RMK A01 T00380034  RH  098%=      5-min Rain = 0
KSB1 080625Z 13007KT 04/03 A3015 RMK A01 T00370034  RH  098%=      5-min Rain = 0
KSB1 080626Z 13007KT 04/03 A3015 RMK A01 T00370033  RH  098%=      5-min Rain = 0
KSB1 080627Z 13007KT 04/03 A3015 RMK A01 T00370034  RH  098%=      5-min Rain = 0
KSB1 080628Z 13006KT 04/03 A3016 RMK A01 T00370034  RH  098%=      5-min Rain = 0
KSB1 080629Z 14006KT 04/03 A3016 RMK A01 T00370034  RH  098%=      5-min Rain = 0
KSB1 080630Z 14007KT 04/03 A3016 RMK A01 T00370034  RH  098%=      5-min Rain = 0
KSB1 080631Z 15006KT 04/03 A3016 RMK A01 T00370034  RH  098%=      5-min Rain = 0
KSB1 080632Z 14006KT 04/03 A3016 RMK A01 T00370034  RH  098%=      5-min Rain = 0.01
KSB1 080633Z 14006KT 04/03 A3016 RMK A01 T00370034  RH  098%=      5-min Rain = 0
KSB1 080634Z 14005KT 04/03 A3016 RMK A01 T00370034  RH  098%=      5-min Rain = 0
KSB1 080635Z 14006KT 04/03 A3016 RMK A01 T00380034  RH  098%=      5-min Rain = 0
KSB1 080636Z 13005KT 04/03 A3016 RMK A01 T00380034  RH  098%=      5-min Rain = 0
KSB1 080637Z 12006KT 04/03 A3016 RMK A01 T00380034  RH  098%=      5-min Rain = 0
KSB1 080638Z 12006KT 04/03 A3016 RMK A01 T00370034  RH  098%=      5-min Rain = 0
KSB1 080639Z 12007KT 04/03 A3016 RMK A01 T00370033  RH  098%=      5-min Rain = 0
KSB1 080640Z 12008KT 04/03 A3016 RMK A01 T00360033  RH  098%=      5-min Rain = 0
KSB1 080641Z 12008KT 04/03 A3016 RMK A01 T00360032  RH  098%=      5-min Rain = 0
KSB1 080642Z 11006KT 04/03 A3016 RMK A01 T00360032  RH  098%=      5-min Rain = 0
KSB1 080643Z 12006KT 04/03 A3016 RMK A01 T00360032  RH  098%=      5-min Rain = 0
KSB1 080644Z 11007KT 04/03 A3016 RMK A01 T00360032  RH  098%=      5-min Rain = 0
KSB1 080645Z 11008KT 04/03 A3016 RMK A01 T00360032  RH  098%=      5-min Rain = 0
KSB1 080646Z 11008KT 04/03 A3016 RMK A01 T00350032  RH  098%=      5-min Rain = 0
KSB1 080647Z 11006KT 04/03 A3016 RMK A01 T00350032  RH  098%=      5-min Rain = 0
KSB1 080648Z 11006KT 04/03 A3016 RMK A01 T00350031  RH  098%=      5-min Rain = 0
KSB1 080649Z 12007KT 04/03 A3016 RMK A01 T00350031  RH  098%=      5-min Rain = 0
KSB1 080650Z 11007KT 04/03 A3016 RMK A01 T00350031  RH  098%=      5-min Rain = 0
KSB1 080651Z 11006KT 04/03 A3016 RMK A01 T00350031  RH  098%=      5-min Rain = 0
KSB1 080652Z 10005KT 04/03 A3016 RMK A01 T00350031  RH  098%=      5-min Rain = 0
KSB1 080653Z 11005KT 04/03 A3016 RMK A01 T00350032  RH  098%=      5-min Rain = 0
KSB1 080654Z 11006KT 04/03 A3016 RMK A01 T00350032  RH  098%=      5-min Rain = 0
KSB1 080655Z 10005KT 04/03 A3016 RMK A01 T00350032  RH  098%=      5-min Rain = 0
KSB1 080656Z 10005KT 04/03 A3016 RMK A01 T00350032  RH  098%=      5-min Rain = 0
KSB1 080657Z 10007KT 04/03 A3016 RMK A01 T00350032  RH  098%=      5-min Rain = 0
KSB1 080658Z 10008KT 04/03 A3016 RMK A01 T00350032  RH  098%=      5-min Rain = 0
KSB1 080659Z 10007KT 04/03 A3016 RMK A01 T00350031  RH  098%=      5-min Rain = 0
KSB1 080700Z 09009KT 04/03 A3015 RMK A01 T00350032  RH  098%=      5-min Rain = 0
KSB1 080701Z 10008KT 04/03 A3015 RMK A01 T00350031  RH  098%=      5-min Rain = 0
KSB1 080702Z 09008KT 03/03 A3015 RMK A01 T00340031  RH  098%=      5-min Rain = 0
KSB1 080703Z 10009KT 03/03 A3015 RMK A01 T00340031  RH  098%=      5-min Rain = 0
KSB1 080704Z 10009KT 03/03 A3015 RMK A01 T00340031  RH  098%=      5-min Rain = 0
KSB1 080705Z 10009KT 03/03 A3015 RMK A01 T00340031  RH  098%=      5-min Rain = 0
KSB1 080706Z 10010KT 03/03 A3015 RMK A01 T00340031  RH  098%=      5-min Rain = 0
KSB1 080707Z 10009KT 03/03 A3015 RMK A01 T00340031  RH  098%=      5-min Rain = 0
KSB1 080708Z 10009KT 03/03 A3015 RMK A01 T00330030  RH  098%=      5-min Rain = 0
KSB1 080709Z 10007KT 03/03 A3015 RMK A01 T00330030  RH  098%=      5-min Rain = 0
KSB1 080710Z 10006KT 03/03 A3015 RMK A01 T00340031  RH  098%=      5-min Rain = 0
KSB1 080711Z 10006KT 03/03 A3015 RMK A01 T00340031  RH  098%=      5-min Rain = 0
KSB1 080712Z 11007KT 03/03 A3015 RMK A01 T00340031  RH  098%=      5-min Rain = 0
KSB1 080713Z 11007KT 03/03 A3015 RMK A01 T00340031  RH  098%=      5-min Rain = 0
KSB1 080714Z 11007KT 03/03 A3015 RMK A01 T00340031  RH  098%=      5-min Rain = 0
KSB1 080715Z 11007KT 03/03 A3015 RMK A01 T00330030  RH  098%=      5-min Rain = 0
KSB1 080716Z 11007KT 03/03 A3015 RMK A01 T00330030  RH  098%=      5-min Rain = 0
KSB1 080717Z 10006KT 03/03 A3015 RMK A01 T00330030  RH  098%=      5-min Rain = 0
KSB1 080718Z 11005KT 03/03 A3015 RMK A01 T00330030  RH  098%=      5-min Rain = 0
KSB1 080719Z 10005KT 03/03 A3015 RMK A01 T00330030  RH  098%=      5-min Rain = 0
KSB1 080720Z 10006KT 03/03 A3015 RMK A01 T00330030  RH  098%=      5-min Rain = 0
KSB1 080721Z 10006KT 03/03 A3015 RMK A01 T00330030  RH  098%=      5-min Rain = 0
KSB1 080722Z 10007KT 03/03 A3015 RMK A01 T00330030  RH  098%=      5-min Rain = 0
KSB1 080723Z 10007KT 03/03 A3015 RMK A01 T00330030  RH  098%=      5-min Rain = 0
KSB1 080724Z 10007KT 03/03 A3016 RMK A01 T00320030  RH  098%=      5-min Rain = 0
KSB1 080725Z 10006KT 03/03 A3016 RMK A01 T00320029  RH  098%=      5-min Rain = 0
KSB1 080726Z 12005KT 03/03 A3016 RMK A01 T00320029  RH  098%=      5-min Rain = 0
KSB1 080727Z 13006KT 03/03 A3016 RMK A01 T00320030  RH  098%=      5-min Rain = 0
KSB1 080728Z 12007KT 03/03 A3016 RMK A01 T00320030  RH  098%=      5-min Rain = 0
KSB1 080729Z 12007KT 03/03 A3016 RMK A01 T00320030  RH  098%=      5-min Rain = 0
KSB1 080730Z 11007KT 03/03 A3016 RMK A01 T00320029  RH  098%=      5-min Rain = 0
KSB1 080731Z 12007KT 03/03 A3016 RMK A01 T00320029  RH  098%=      5-min Rain = 0
KSB1 080732Z 11007KT 03/03 A3016 RMK A01 T00320029  RH  098%=      5-min Rain = 0
KSB1 080733Z 10008KT 03/03 A3016 RMK A01 T00320029  RH  098%=      5-min Rain = 0
KSB1 080734Z 10008KT 03/03 A3015 RMK A01 T00310029  RH  098%=      5-min Rain = 0
KSB1 080735Z 10007KT 03/03 A3015 RMK A01 T00310029  RH  098%=      5-min Rain = 0
KSB1 080736Z 10008KT 03/03 A3015 RMK A01 T00310029  RH  098%=      5-min Rain = 0
KSB1 080737Z 11008KT 03/03 A3015 RMK A01 T00310029  RH  099%=      5-min Rain = 0
KSB1 080738Z 11008KT 03/03 A3015 RMK A01 T00310029  RH  098%=      5-min Rain = 0
KSB1 080739Z 10008KT 03/03 A3015 RMK A01 T00310029  RH  098%=      5-min Rain = 0
KSB1 080740Z 10008KT 03/03 A3015 RMK A01 T00300028  RH  098%=      5-min Rain = 0
KSB1 080741Z 10007KT 03/03 A3015 RMK A01 T00300028  RH  098%=      5-min Rain = 0
KSB1 080742Z 10006KT 03/03 A3015 RMK A01 T00300027  RH  098%=      5-min Rain = 0
KSB1 080743Z 11006KT 03/03 A3015 RMK A01 T00300028  RH  098%=      5-min Rain = 0
KSB1 080744Z 10006KT 03/03 A3015 RMK A01 T00300028  RH  098%=      5-min Rain = 0
KSB1 080745Z 11005KT 03/03 A3015 RMK A01 T00300028  RH  099%=      5-min Rain = 0
KSB1 080746Z 11004KT 03/03 A3016 RMK A01 T00300028  RH  098%=      5-min Rain = 0
KSB1 080747Z 11004KT 03/03 A3016 RMK A01 T00300028  RH  099%=      5-min Rain = 0
KSB1 080748Z 11004KT 03/03 A3016 RMK A01 T00300028  RH  099%=      5-min Rain = 0
KSB1 080749Z 11004KT 03/03 A3016 RMK A01 T00300028  RH  099%=      5-min Rain = 0
KSB1 080750Z 12006KT 03/03 A3016 RMK A01 T00300028  RH  099%=      5-min Rain = 0
KSB1 080751Z 12005KT 03/03 A3016 RMK A01 T00300028  RH  099%=      5-min Rain = 0
KSB1 080752Z 12005KT 03/03 A3016 RMK A01 T00300028  RH  098%=      5-min Rain = 0
KSB1 080753Z 10006KT 03/03 A3016 RMK A01 T00300028  RH  099%=      5-min Rain = 0
KSB1 080754Z 10006KT 03/03 A3016 RMK A01 T00300027  RH  099%=      5-min Rain = 0
KSB1 080755Z 10007KT 03/03 A3016 RMK A01 T00290027  RH  098%=      5-min Rain = 0
KSB1 080756Z 11006KT 03/03 A3016 RMK A01 T00290027  RH  099%=      5-min Rain = 0
KSB1 080757Z 10006KT 03/03 A3016 RMK A01 T00300027  RH  099%=      5-min Rain = 0
KSB1 080758Z 11006KT 03/03 A3016 RMK A01 T00290027  RH  099%=      5-min Rain = 0
KSB1 080759Z 11007KT 03/03 A3016 RMK A01 T00290027  RH  099%=      5-min Rain = 0
KSB1 080800Z 11007KT 03/03 A3016 RMK A01 T00290027  RH  099%=      5-min Rain = 0
KSB1 080801Z 10006KT 03/03 A3016 RMK A01 T00290027  RH  099%=      5-min Rain = 0
KSB1 080802Z 11004KT 03/03 A3016 RMK A01 T00290027  RH  099%=      5-min Rain = 0
KSB1 080803Z 11005KT 03/03 A3016 RMK A01 T00290027  RH  099%=      5-min Rain = 0
KSB1 080804Z 13006KT 03/03 A3016 RMK A01 T00290027  RH  099%=      5-min Rain = 0
KSB1 080805Z 12007KT 03/03 A3016 RMK A01 T00290027  RH  099%=      5-min Rain = 0
KSB1 080806Z 12008KT 03/03 A3016 RMK A01 T00280026  RH  098%=      5-min Rain = 0
KSB1 080807Z 13007KT 03/03 A3016 RMK A01 T00290026  RH  099%=      5-min Rain = 0
KSB1 080808Z 12007KT 03/03 A3016 RMK A01 T00280026  RH  099%=      5-min Rain = 0
KSB1 080809Z 11006KT 03/03 A3016 RMK A01 T00280026  RH  099%=      5-min Rain = 0
KSB1 080810Z 11006KT 03/03 A3016 RMK A01 T00280026  RH  099%=      5-min Rain = 0
KSB1 080811Z 11007KT 03/03 A3016 RMK A01 T00280026  RH  099%=      5-min Rain = 0
KSB1 080812Z 10005KT 03/03 A3016 RMK A01 T00280026  RH  099%=      5-min Rain = 0
KSB1 080813Z 11006KT 03/03 A3016 RMK A01 T00290027  RH  099%=      5-min Rain = 0
KSB1 080814Z 12007KT 03/03 A3017 RMK A01 T00290027  RH  099%=      5-min Rain = 0
KSB1 080815Z 11006KT 03/03 A3017 RMK A01 T00290026  RH  099%=      5-min Rain = 0
KSB1 080816Z 11006KT 03/03 A3016 RMK A01 T00280026  RH  099%=      5-min Rain = 0
KSB1 080817Z 11005KT 03/03 A3016 RMK A01 T00280026  RH  099%=      5-min Rain = 0
KSB1 080818Z 10005KT 03/03 A3017 RMK A01 T00280026  RH  099%=      5-min Rain = 0
KSB1 080819Z 10007KT 03/03 A3017 RMK A01 T00280026  RH  099%=      5-min Rain = 0
KSB1 080820Z 10006KT 03/03 A3017 RMK A01 T00280026  RH  099%=      5-min Rain = 0
KSB1 080821Z 10005KT 03/03 A3017 RMK A01 T00280026  RH  099%=      5-min Rain = 0
KSB1 080822Z 10007KT 03/03 A3016 RMK A01 T00280026  RH  099%=      5-min Rain = 0
KSB1 080823Z 10007KT 03/03 A3016 RMK A01 T00280026  RH  099%=      5-min Rain = 0
KSB1 080824Z 10006KT 03/03 A3016 RMK A01 T00280025  RH  099%=      5-min Rain = 0
KSB1 080825Z 10005KT 03/03 A3016 RMK A01 T00280026  RH  099%=      5-min Rain = 0
KSB1 080826Z 09005KT 03/03 A3017 RMK A01 T00270025  RH  099%=      5-min Rain = 0
KSB1 080827Z 10005KT 03/03 A3017 RMK A01 T00280026  RH  099%=      5-min Rain = 0
KSB1 080828Z 09004KT 03/03 A3017 RMK A01 T00280026  RH  099%=      5-min Rain = 0
KSB1 080829Z 10005KT 03/03 A3017 RMK A01 T00280026  RH  099%=      5-min Rain = 0
KSB1 080830Z 10005KT 03/03 A3017 RMK A01 T00280026  RH  099%=      5-min Rain = 0
KSB1 080831Z 10004KT 03/03 A3017 RMK A01 T00270025  RH  099%=      5-min Rain = 0
KSB1 080832Z 10004KT 03/03 A3017 RMK A01 T00270025  RH  099%=      5-min Rain = 0
KSB1 080833Z 10005KT 03/03 A3017 RMK A01 T00270025  RH  099%=      5-min Rain = 0
KSB1 080834Z 11006KT 03/03 A3017 RMK A01 T00280026  RH  099%=      5-min Rain = 0
KSB1 080835Z 10005KT 03/03 A3017 RMK A01 T00280026  RH  099%=      5-min Rain = 0
KSB1 080836Z 10006KT 03/03 A3017 RMK A01 T00280026  RH  099%=      5-min Rain = 0
KSB1 080837Z 10007KT 03/03 A3017 RMK A01 T00280026  RH  099%=      5-min Rain = 0
KSB1 080838Z 10006KT 03/03 A3017 RMK A01 T00280026  RH  099%=      5-min Rain = 0
KSB1 080839Z 09006KT 03/03 A3017 RMK A01 T00270026  RH  099%=      5-min Rain = 0
KSB1 080840Z 09006KT 03/03 A3017 RMK A01 T00270026  RH  099%=      5-min Rain = 0
KSB1 080841Z 09007KT 03/03 A3017 RMK A01 T00270026  RH  099%=      5-min Rain = 0
KSB1 080842Z 09006KT 03/03 A3017 RMK A01 T00270026  RH  099%=      5-min Rain = 0
KSB1 080843Z 09005KT 03/03 A3017 RMK A01 T00270026  RH  099%=      5-min Rain = 0
KSB1 080844Z 08003KT 03/03 A3017 RMK A01 T00270025  RH  099%=      5-min Rain = 0
KSB1 080845Z 08003KT 03/03 A3017 RMK A01 T00270026  RH  099%=      5-min Rain = 0
KSB1 080846Z 09001KT 03/03 A3017 RMK A01 T00280026  RH  099%=      5-min Rain = 0
KSB1 080847Z 12000KT 03/03 A3018 RMK A01 T00280026  RH  099%=      5-min Rain = 0
KSB1 080848Z 13002KT 03/03 A3018 RMK A01 T00280026  RH  099%=      5-min Rain = 0
KSB1 080849Z 11002KT 03/03 A3018 RMK A01 T00270025  RH  099%=      5-min Rain = 0
KSB1 080850Z 11001KT 03/03 A3018 RMK A01 T00270025  RH  099%=      5-min Rain = 0
KSB1 080851Z 12002KT 03/03 A3018 RMK A01 T00270025  RH  099%=      5-min Rain = 0
KSB1 080852Z 09004KT 03/03 A3018 RMK A01 T00270025  RH  099%=      5-min Rain = 0
KSB1 080853Z 08003KT 03/02 A3018 RMK A01 T00260024  RH  099%=      5-min Rain = 0
KSB1 080854Z 08005KT 03/02 A3018 RMK A01 T00260024  RH  099%=      5-min Rain = 0
KSB1 080855Z 08004KT 03/02 A3018 RMK A01 T00260024  RH  099%=      5-min Rain = 0
KSB1 080856Z 09005KT 03/02 A3018 RMK A01 T00260024  RH  099%=      5-min Rain = 0
KSB1 080857Z 08005KT 03/03 A3018 RMK A01 T00260025  RH  099%=      5-min Rain = 0
KSB1 080858Z 09005KT 03/03 A3018 RMK A01 T00270025  RH  099%=      5-min Rain = 0
KSB1 080859Z 09006KT 03/03 A3018 RMK A01 T00270025  RH  099%=      5-min Rain = 0
KSB1 080900Z 09005KT 03/03 A3018 RMK A01 T00270025  RH  099%=      5-min Rain = 0
KSB1 080901Z 10005KT 03/03 A3018 RMK A01 T00270025  RH  099%=      5-min Rain = 0
KSB1 080902Z 09006KT 03/03 A3018 RMK A01 T00270026  RH  099%=      5-min Rain = 0
KSB1 080903Z 09006KT 03/03 A3018 RMK A01 T00280026  RH  099%=      5-min Rain = 0.01
KSB1 080904Z 09006KT 03/03 A3018 RMK A01 T00280026  RH  099%=      5-min Rain = 0
KSB1 080905Z 10005KT 03/03 A3018 RMK A01 T00280026  RH  099%=      5-min Rain = 0
KSB1 080906Z 10005KT 03/03 A3018 RMK A01 T00280026  RH  099%=      5-min Rain = 0
KSB1 080907Z 09006KT 03/03 A3018 RMK A01 T00280026  RH  099%=      5-min Rain = 0
KSB1 080908Z 09006KT 03/03 A3018 RMK A01 T00280026  RH  099%=      5-min Rain = 0
KSB1 080909Z 10005KT 03/03 A3018 RMK A01 T00270025  RH  099%=      5-min Rain = 0
KSB1 080910Z 09006KT 03/03 A3018 RMK A01 T00270025  RH  099%=      5-min Rain = 0
KSB1 080911Z 10004KT 03/03 A3018 RMK A01 T00260025  RH  099%=      5-min Rain = 0
KSB1 080912Z 10004KT 03/03 A3018 RMK A01 T00260025  RH  099%=      5-min Rain = 0
KSB1 080913Z 10006KT 03/03 A3018 RMK A01 T00270025  RH  099%=      5-min Rain = 0
KSB1 080914Z 10005KT 03/03 A3018 RMK A01 T00270025  RH  099%=      5-min Rain = 0
KSB1 080915Z 10004KT 03/03 A3018 RMK A01 T00270025  RH  099%=      5-min Rain = 0
KSB1 080916Z 11004KT 03/03 A3018 RMK A01 T00260025  RH  099%=      5-min Rain = 0
KSB1 080917Z 10005KT 03/03 A3018 RMK A01 T00270025  RH  099%=      5-min Rain = 0
KSB1 080918Z 10004KT 03/03 A3018 RMK A01 T00260025  RH  099%=      5-min Rain = 0
KSB1 080919Z 10005KT 03/03 A3018 RMK A01 T00270025  RH  099%=      5-min Rain = 0
KSB1 080920Z 09004KT 03/03 A3018 RMK A01 T00270025  RH  099%=      5-min Rain = 0
KSB1 080921Z 09006KT 03/03 A3018 RMK A01 T00270025  RH  099%=      5-min Rain = 0
KSB1 080922Z 10006KT 03/03 A3018 RMK A01 T00270025  RH  099%=      5-min Rain = 0
KSB1 080923Z 10006KT 03/03 A3018 RMK A01 T00270025  RH  099%=      5-min Rain = 0
KSB1 080924Z 09006KT 03/03 A3018 RMK A01 T00270025  RH  099%=      5-min Rain = 0
KSB1 080925Z 10006KT 03/03 A3018 RMK A01 T00270025  RH  099%=      5-min Rain = 0
KSB1 080926Z 11005KT 03/03 A3018 RMK A01 T00270025  RH  099%=      5-min Rain = 0
KSB1 080927Z 10005KT 03/03 A3018 RMK A01 T00270025  RH  099%=      5-min Rain = 0
KSB1 080928Z 09004KT 03/03 A3018 RMK A01 T00270025  RH  099%=      5-min Rain = 0
KSB1 080929Z 10004KT 03/03 A3018 RMK A01 T00270025  RH  099%=      5-min Rain = 0
KSB1 080930Z 10005KT 03/03 A3018 RMK A01 T00270025  RH  099%=      5-min Rain = 0
KSB1 080931Z 10006KT 03/03 A3018 RMK A01 T00270025  RH  099%=      5-min Rain = 0.01
KSB1 080932Z 10006KT 03/03 A3018 RMK A01 T00270025  RH  099%=      5-min Rain = 0
KSB1 080933Z 10006KT 03/03 A3018 RMK A01 T00270025  RH  099%=      5-min Rain = 0
KSB1 080934Z 10006KT 03/03 A3018 RMK A01 T00270025  RH  099%=      5-min Rain = 0
KSB1 080935Z 10005KT 03/03 A3018 RMK A01 T00270025  RH  099%=      5-min Rain = 0
KSB1 080936Z 09005KT 03/03 A3018 RMK A01 T00270026  RH  099%=      5-min Rain = 0
KSB1 080937Z 10005KT 03/03 A3018 RMK A01 T00270026  RH  099%=      5-min Rain = 0
KSB1 080938Z 10005KT 03/03 A3018 RMK A01 T00270025  RH  099%=      5-min Rain = 0
KSB1 080939Z 11006KT 03/03 A3018 RMK A01 T00270025  RH  099%=      5-min Rain = 0
KSB1 080940Z 11006KT 03/03 A3018 RMK A01 T00270025  RH  099%=      5-min Rain = 0
KSB1 080941Z 11006KT 03/03 A3018 RMK A01 T00260025  RH  099%=      5-min Rain = 0
KSB1 080942Z 11006KT 03/02 A3018 RMK A01 T00260024  RH  099%=      5-min Rain = 0
KSB1 080943Z 10005KT 03/02 A3018 RMK A01 T00260024  RH  099%=      5-min Rain = 0
KSB1 080944Z 10004KT 03/03 A3018 RMK A01 T00260025  RH  099%=      5-min Rain = 0
KSB1 080945Z 10006KT 03/02 A3018 RMK A01 T00260024  RH  099%=      5-min Rain = 0
KSB1 080946Z 11006KT 03/03 A3018 RMK A01 T00260025  RH  099%=      5-min Rain = 0
KSB1 080947Z 11006KT 03/02 A3018 RMK A01 T00260024  RH  099%=      5-min Rain = 0
KSB1 080948Z 11006KT 03/02 A3018 RMK A01 T00260024  RH  099%=      5-min Rain = 0
KSB1 080949Z 11005KT 03/02 A3018 RMK A01 T00260024  RH  099%=      5-min Rain = 0
KSB1 080950Z 11006KT 03/02 A3018 RMK A01 T00260024  RH  099%=      5-min Rain = 0
KSB1 080951Z 11005KT 03/02 A3018 RMK A01 T00260024  RH  099%=      5-min Rain = 0
KSB1 080952Z 11005KT 03/02 A3018 RMK A01 T00260024  RH  099%=      5-min Rain = 0
KSB1 080953Z 11005KT 03/02 A3018 RMK A01 T00260024  RH  099%=      5-min Rain = 0
KSB1 080954Z 10005KT 03/02 A3018 RMK A01 T00260024  RH  099%=      5-min Rain = 0
KSB1 080955Z 10006KT 03/02 A3018 RMK A01 T00260024  RH  099%=      5-min Rain = 0
KSB1 080956Z 10006KT 03/02 A3018 RMK A01 T00260024  RH  099%=      5-min Rain = 0.01
KSB1 080957Z 10007KT 03/02 A3018 RMK A01 T00260024  RH  099%=      5-min Rain = 0
KSB1 080958Z 10007KT 03/02 A3018 RMK A01 T00260024  RH  099%=      5-min Rain = 0
KSB1 080959Z 10006KT 03/02 A3018 RMK A01 T00260024  RH  099%=      5-min Rain = 0
KSB1 081000Z 10005KT 03/02 A3018 RMK A01 T00260024  RH  099%=      5-min Rain = 0
KSB1 081001Z 10004KT 03/03 A3018 RMK A01 T00260025  RH  099%=      5-min Rain = 0
KSB1 081002Z 10004KT 03/02 A3018 RMK A01 T00260024  RH  099%=      5-min Rain = 0
KSB1 081003Z 11004KT 03/02 A3018 RMK A01 T00260024  RH  099%=      5-min Rain = 0
KSB1 081004Z 11007KT 03/02 A3018 RMK A01 T00260024  RH  099%=      5-min Rain = 0
KSB1 081005Z 11005KT 03/02 A3018 RMK A01 T00250024  RH  099%=      5-min Rain = 0
KSB1 081006Z 11007KT 03/02 A3018 RMK A01 T00250023  RH  099%=      5-min Rain = 0
KSB1 081007Z 11005KT 02/02 A3018 RMK A01 T00240023  RH  099%=      5-min Rain = 0
KSB1 081008Z 11004KT 02/02 A3018 RMK A01 T00240023  RH  099%=      5-min Rain = 0
KSB1 081009Z 11004KT 03/02 A3018 RMK A01 T00250023  RH  099%=      5-min Rain = 0
KSB1 081010Z 12008KT 03/02 A3018 RMK A01 T00250024  RH  099%=      5-min Rain = 0
KSB1 081011Z 12007KT 03/02 A3018 RMK A01 T00250023  RH  099%=      5-min Rain = 0
KSB1 081012Z 11006KT 02/02 A3018 RMK A01 T00240022  RH  099%=      5-min Rain = 0
KSB1 081013Z 11005KT 02/02 A3018 RMK A01 T00240022  RH  099%=      5-min Rain = 0
KSB1 081014Z 12004KT 02/02 A3019 RMK A01 T00240022  RH  099%=      5-min Rain = 0
KSB1 081015Z 12004KT 02/02 A3019 RMK A01 T00240022  RH  099%=      5-min Rain = 0
KSB1 081016Z 13005KT 02/02 A3019 RMK A01 T00240023  RH  099%=      5-min Rain = 0
KSB1 081017Z 11003KT 02/02 A3019 RMK A01 T00240023  RH  099%=      5-min Rain = 0
KSB1 081018Z 11004KT 02/02 A3019 RMK A01 T00240022  RH  099%=      5-min Rain = 0
KSB1 081019Z 11005KT 02/02 A3019 RMK A01 T00240022  RH  099%=      5-min Rain = 0
KSB1 081020Z 12005KT 02/02 A3019 RMK A01 T00240022  RH  099%=      5-min Rain = 0
KSB1 081021Z 11005KT 02/02 A3019 RMK A01 T00240022  RH  099%=      5-min Rain = 0
KSB1 081022Z 12004KT 02/02 A3019 RMK A01 T00240022  RH  099%=      5-min Rain = 0
KSB1 081023Z 11005KT 02/02 A3019 RMK A01 T00230022  RH  099%=      5-min Rain = 0
KSB1 081024Z 11006KT 02/02 A3019 RMK A01 T00230022  RH  099%=      5-min Rain = 0
KSB1 081025Z 11005KT 02/02 A3019 RMK A01 T00230022  RH  099%=      5-min Rain = 0
KSB1 081026Z 10006KT 02/02 A3019 RMK A01 T00240022  RH  099%=      5-min Rain = 0
KSB1 081027Z 11005KT 02/02 A3019 RMK A01 T00230022  RH  099%=      5-min Rain = 0
KSB1 081028Z 10005KT 02/02 A3019 RMK A01 T00230022  RH  099%=      5-min Rain = 0
KSB1 081029Z 10005KT 02/02 A3019 RMK A01 T00230022  RH  099%=      5-min Rain = 0
KSB1 081030Z 10005KT 02/02 A3019 RMK A01 T00230022  RH  099%=      5-min Rain = 0
KSB1 081031Z 10004KT 02/02 A3019 RMK A01 T00240022  RH  099%=      5-min Rain = 0
KSB1 081032Z 10003KT 02/02 A3019 RMK A01 T00240022  RH  099%=      5-min Rain = 0
KSB1 081033Z 10003KT 02/02 A3019 RMK A01 T00240022  RH  099%=      5-min Rain = 0
KSB1 081034Z 09005KT 02/02 A3019 RMK A01 T00240022  RH  099%=      5-min Rain = 0
KSB1 081035Z 10004KT 02/02 A3019 RMK A01 T00240022  RH  099%=      5-min Rain = 0
KSB1 081036Z 11005KT 02/02 A3019 RMK A01 T00240023  RH  099%=      5-min Rain = 0
KSB1 081037Z 10004KT 02/02 A3019 RMK A01 T00240023  RH  099%=      5-min Rain = 0
KSB1 081038Z 09005KT 02/02 A3019 RMK A01 T00240023  RH  099%=      5-min Rain = 0
KSB1 081039Z 09005KT 02/02 A3019 RMK A01 T00240023  RH  099%=      5-min Rain = 0
KSB1 081040Z 09005KT 02/02 A3019 RMK A01 T00230022  RH  099%=      5-min Rain = 0
KSB1 081041Z 09006KT 02/02 A3019 RMK A01 T00230022  RH  099%=      5-min Rain = 0
KSB1 081042Z 10005KT 02/02 A3019 RMK A01 T00230021  RH  099%=      5-min Rain = 0
KSB1 081043Z 10005KT 02/02 A3019 RMK A01 T00230022  RH  099%=      5-min Rain = 0
KSB1 081044Z 10004KT 02/02 A3019 RMK A01 T00230022  RH  099%=      5-min Rain = 0
KSB1 081045Z 10004KT 02/02 A3019 RMK A01 T00230022  RH  099%=      5-min Rain = 0
KSB1 081046Z 09004KT 02/02 A3019 RMK A01 T00230022  RH  099%=      5-min Rain = 0.01
KSB1 081047Z 11003KT 02/02 A3019 RMK A01 T00240022  RH  099%=      5-min Rain = 0
KSB1 081048Z 11003KT 02/02 A3019 RMK A01 T00240022  RH  099%=      5-min Rain = 0
KSB1 081049Z 11003KT 02/02 A3019 RMK A01 T00240023  RH  099%=      5-min Rain = 0
KSB1 081050Z 12003KT 02/02 A3019 RMK A01 T00230022  RH  099%=      5-min Rain = 0
KSB1 081051Z 10002KT 02/02 A3019 RMK A01 T00230022  RH  099%=      5-min Rain = 0
KSB1 081052Z 09002KT 02/02 A3019 RMK A01 T00230022  RH  099%=      5-min Rain = 0
KSB1 081053Z 09003KT 02/02 A3019 RMK A01 T00230022  RH  099%=      5-min Rain = 0
KSB1 081054Z 09002KT 02/02 A3019 RMK A01 T00230022  RH  099%=      5-min Rain = 0
KSB1 081055Z 10004KT 02/02 A3019 RMK A01 T00230022  RH  099%=      5-min Rain = 0
KSB1 081056Z 10005KT 02/02 A3019 RMK A01 T00230022  RH  099%=      5-min Rain = 0
KSB1 081057Z 10005KT 02/02 A3019 RMK A01 T00230022  RH  099%=      5-min Rain = 0
KSB1 081058Z 11004KT 02/02 A3019 RMK A01 T00220021  RH  099%=      5-min Rain = 0
KSB1 081059Z 10005KT 02/02 A3019 RMK A01 T00220021  RH  099%=      5-min Rain = 0
KSB1 081100Z 10004KT 02/02 A3019 RMK A01 T00230021  RH  099%=      5-min Rain = 0
KSB1 081101Z 11004KT 02/02 A3019 RMK A01 T00230022  RH  099%=      5-min Rain = 0
KSB1 081102Z 11004KT 02/02 A3019 RMK A01 T00230022  RH  099%=      5-min Rain = 0
KSB1 081103Z 10004KT 02/02 A3019 RMK A01 T00230022  RH  099%=      5-min Rain = 0
KSB1 081104Z 10003KT 02/02 A3019 RMK A01 T00230022  RH  099%=      5-min Rain = 0
KSB1 081105Z 10004KT 02/02 A3019 RMK A01 T00240023  RH  099%=      5-min Rain = 0
KSB1 081106Z 10004KT 02/02 A3019 RMK A01 T00240023  RH  099%=      5-min Rain = 0
KSB1 081107Z 09003KT 02/02 A302 RMK A01 T00240023  RH  099%=      5-min Rain = 0
KSB1 081108Z 10003KT 02/02 A302 RMK A01 T00240023  RH  099%=      5-min Rain = 0
KSB1 081109Z 09004KT 02/02 A302 RMK A01 T00240023  RH  099%=      5-min Rain = 0
KSB1 081110Z 10004KT 02/02 A302 RMK A01 T00240023  RH  099%=      5-min Rain = 0
KSB1 081111Z 10003KT 02/02 A302 RMK A01 T00230022  RH  099%=      5-min Rain = 0
KSB1 081112Z 10003KT 02/02 A302 RMK A01 T00230022  RH  099%=      5-min Rain = 0
KSB1 081113Z 10005KT 02/02 A302 RMK A01 T00230022  RH  099%=      5-min Rain = 0
KSB1 081114Z 11004KT 02/02 A302 RMK A01 T00230022  RH  099%=      5-min Rain = 0
KSB1 081115Z 12005KT 02/02 A302 RMK A01 T00230022  RH  099%=      5-min Rain = 0
KSB1 081116Z 11005KT 02/02 A302 RMK A01 T00230022  RH  099%=      5-min Rain = 0
KSB1 081117Z 11004KT 02/02 A302 RMK A01 T00230022  RH  099%=      5-min Rain = 0
KSB1 081118Z 12004KT 02/02 A302 RMK A01 T00230022  RH  099%=      5-min Rain = 0
KSB1 081119Z 12004KT 02/02 A302 RMK A01 T00230022  RH  099%=      5-min Rain = 0
KSB1 081120Z 11003KT 02/02 A302 RMK A01 T00230022  RH  099%=      5-min Rain = 0
KSB1 081121Z 10003KT 02/02 A302 RMK A01 T00230021  RH  099%=      5-min Rain = 0
KSB1 081122Z 09003KT 02/02 A302 RMK A01 T00230022  RH  099%=      5-min Rain = 0
KSB1 081123Z 09004KT 02/02 A302 RMK A01 T00230022  RH  099%=      5-min Rain = 0
KSB1 081124Z 09005KT 02/02 A302 RMK A01 T00240022  RH  099%=      5-min Rain = 0
KSB1 081125Z 08004KT 02/02 A302 RMK A01 T00230022  RH  099%=      5-min Rain = 0
KSB1 081126Z 10004KT 02/02 A302 RMK A01 T00240022  RH  099%=      5-min Rain = 0
KSB1 081127Z 11005KT 02/02 A302 RMK A01 T00230022  RH  099%=      5-min Rain = 0
KSB1 081128Z 11005KT 02/02 A302 RMK A01 T00230021  RH  099%=      5-min Rain = 0
KSB1 081129Z 12004KT 02/02 A302 RMK A01 T00220021  RH  099%=      5-min Rain = 0
KSB1 081130Z 11005KT 02/02 A302 RMK A01 T00220021  RH  099%=      5-min Rain = 0
KSB1 081131Z 11005KT 02/02 A302 RMK A01 T00220021  RH  099%=      5-min Rain = 0
KSB1 081132Z 11006KT 02/02 A3021 RMK A01 T00220021  RH  099%=      5-min Rain = 0
KSB1 081133Z 10005KT 02/02 A3021 RMK A01 T00220021  RH  099%=      5-min Rain = 0
KSB1 081134Z 10005KT 02/02 A3021 RMK A01 T00220021  RH  099%=      5-min Rain = 0
KSB1 081135Z 09004KT 02/02 A3021 RMK A01 T00220021  RH  099%=      5-min Rain = 0
KSB1 081136Z 09003KT 02/02 A3021 RMK A01 T00220021  RH  099%=      5-min Rain = 0
KSB1 081137Z 08004KT 02/02 A3021 RMK A01 T00220021  RH  099%=      5-min Rain = 0
KSB1 081138Z 09004KT 02/02 A3021 RMK A01 T00220021  RH  099%=      5-min Rain = 0
KSB1 081139Z 11003KT 02/02 A3021 RMK A01 T00220021  RH  099%=      5-min Rain = 0.01
KSB1 081140Z 11004KT 02/02 A3021 RMK A01 T00220021  RH  099%=      5-min Rain = 0
KSB1 081141Z 11005KT 02/02 A3021 RMK A01 T00220021  RH  099%=      5-min Rain = 0
KSB1 081142Z 10005KT 02/02 A3021 RMK A01 T00220021  RH  099%=      5-min Rain = 0
KSB1 081143Z 11004KT 02/02 A3021 RMK A01 T00220021  RH  099%=      5-min Rain = 0
KSB1 081144Z 10003KT 02/02 A3021 RMK A01 T00220021  RH  099%=      5-min Rain = 0
KSB1 081145Z 10004KT 02/02 A3021 RMK A01 T00230021  RH  099%=      5-min Rain = 0
KSB1 081146Z 11006KT 02/02 A3021 RMK A01 T00220021  RH  099%=      5-min Rain = 0
KSB1 081147Z 10005KT 02/02 A3021 RMK A01 T00220021  RH  099%=      5-min Rain = 0
KSB1 081148Z 11005KT 02/02 A3021 RMK A01 T00220021  RH  099%=      5-min Rain = 0
KSB1 081149Z 11004KT 02/02 A3021 RMK A01 T00220021  RH  099%=      5-min Rain = 0
KSB1 081150Z 10005KT 02/02 A3021 RMK A01 T00220021  RH  099%=      5-min Rain = 0
KSB1 081151Z 10004KT 02/02 A3021 RMK A01 T00220021  RH  099%=      5-min Rain = 0
KSB1 081152Z 09004KT 02/02 A3021 RMK A01 T00220021  RH  099%=      5-min Rain = 0
KSB1 081153Z 10004KT 02/02 A3021 RMK A01 T00220021  RH  099%=      5-min Rain = 0
KSB1 081154Z 11003KT 02/02 A3021 RMK A01 T00220021  RH  099%=      5-min Rain = 0
KSB1 081155Z 10003KT 02/02 A3021 RMK A01 T00220021  RH  099%=      5-min Rain = 0
KSB1 081156Z 10003KT 02/02 A3021 RMK A01 T00220021  RH  099%=      5-min Rain = 0
KSB1 081157Z 11004KT 02/02 A3021 RMK A01 T00220021  RH  099%=      5-min Rain = 0
KSB1 081158Z 11003KT 02/02 A3021 RMK A01 T00230021  RH  099%=      5-min Rain = 0
KSB1 081159Z 11003KT 02/02 A3021 RMK A01 T00220021  RH  099%=      5-min Rain = 0
KSB1 081200Z 09003KT 02/02 A3021 RMK A01 T00220021  RH  099%=      5-min Rain = 0
KSB1 081201Z 10005KT 02/02 A3021 RMK A01 T00220021  RH  099%=      5-min Rain = 0
KSB1 081202Z 11004KT 02/02 A3021 RMK A01 T00230021  RH  099%=      5-min Rain = 0
KSB1 081203Z 11003KT 02/02 A3022 RMK A01 T00220021  RH  099%=      5-min Rain = 0
KSB1 081204Z 10003KT 02/02 A3022 RMK A01 T00230021  RH  099%=      5-min Rain = 0
KSB1 081205Z 09003KT 02/02 A3022 RMK A01 T00230021  RH  099%=      5-min Rain = 0
KSB1 081206Z 08003KT 02/02 A3022 RMK A01 T00230021  RH  099%=      5-min Rain = 0
KSB1 081207Z 09003KT 02/02 A3022 RMK A01 T00220021  RH  099%=      5-min Rain = 0
KSB1 081208Z 10003KT 02/02 A3022 RMK A01 T00230021  RH  099%=      5-min Rain = 0
KSB1 081209Z 08003KT 02/02 A3022 RMK A01 T00220021  RH  099%=      5-min Rain = 0
KSB1 081210Z 08002KT 02/02 A3022 RMK A01 T00220021  RH  099%=      5-min Rain = 0
KSB1 081211Z 09002KT 02/02 A3022 RMK A01 T00220021  RH  099%=      5-min Rain = 0
KSB1 081212Z 09002KT 02/02 A3022 RMK A01 T00230021  RH  099%=      5-min Rain = 0
KSB1 081213Z 09003KT 02/02 A3022 RMK A01 T00220021  RH  099%=      5-min Rain = 0
KSB1 081214Z 09003KT 02/02 A3022 RMK A01 T00220021  RH  099%=      5-min Rain = 0
KSB1 081215Z 09004KT 02/02 A3022 RMK A01 T00220021  RH  099%=      5-min Rain = 0
KSB1 081216Z 09004KT 02/02 A3022 RMK A01 T00220020  RH  099%=      5-min Rain = 0
KSB1 081217Z 09003KT 02/02 A3022 RMK A01 T00220020  RH  099%=      5-min Rain = 0
KSB1 081218Z 08003KT 02/02 A3022 RMK A01 T00220021  RH  099%=      5-min Rain = 0
KSB1 081219Z 09003KT 02/02 A3022 RMK A01 T00220021  RH  099%=      5-min Rain = 0
KSB1 081220Z 11002KT 02/02 A3022 RMK A01 T00230021  RH  099%=      5-min Rain = 0
KSB1 081221Z 07002KT 02/02 A3022 RMK A01 T00220021  RH  099%=      5-min Rain = 0
KSB1 081222Z 08003KT 02/02 A3022 RMK A01 T00230021  RH  099%=      5-min Rain = 0
KSB1 081223Z 08003KT 02/02 A3022 RMK A01 T00230021  RH  099%=      5-min Rain = 0
KSB1 081224Z 09004KT 02/02 A3022 RMK A01 T00230021  RH  099%=      5-min Rain = 0
KSB1 081225Z 09005KT 02/02 A3022 RMK A01 T00220021  RH  099%=      5-min Rain = 0
KSB1 081226Z 10004KT 02/02 A3022 RMK A01 T00220021  RH  099%=      5-min Rain = 0
KSB1 081227Z 10003KT 02/02 A3022 RMK A01 T00220021  RH  099%=      5-min Rain = 0
KSB1 081228Z 10004KT 02/02 A3022 RMK A01 T00230021  RH  099%=      5-min Rain = 0
KSB1 081229Z 09004KT 02/02 A3022 RMK A01 T00230021  RH  099%=      5-min Rain = 0
KSB1 081230Z 11003KT 02/02 A3022 RMK A01 T00230021  RH  099%=      5-min Rain = 0
KSB1 081231Z 10004KT 02/02 A3022 RMK A01 T00230021  RH  099%=      5-min Rain = 0
KSB1 081232Z 10003KT 02/02 A3022 RMK A01 T00230021  RH  099%=      5-min Rain = 0
KSB1 081233Z 10003KT 02/02 A3022 RMK A01 T00230022  RH  099%=      5-min Rain = 0
KSB1 081234Z 11004KT 02/02 A3022 RMK A01 T00230022  RH  099%=      5-min Rain = 0
KSB1 081235Z 11005KT 02/02 A3022 RMK A01 T00230022  RH  099%=      5-min Rain = 0
KSB1 081236Z 11005KT 02/02 A3022 RMK A01 T00230022  RH  099%=      5-min Rain = 0
KSB1 081237Z 11004KT 02/02 A3022 RMK A01 T00230022  RH  099%=      5-min Rain = 0
KSB1 081238Z 12005KT 02/02 A3022 RMK A01 T00240022  RH  099%=      5-min Rain = 0
KSB1 081239Z 12005KT 02/02 A3022 RMK A01 T00230021  RH  099%=      5-min Rain = 0
KSB1 081240Z 11004KT 02/02 A3022 RMK A01 T00220021  RH  099%=      5-min Rain = 0
KSB1 081241Z 11004KT 02/02 A3022 RMK A01 T00220021  RH  099%=      5-min Rain = 0
KSB1 081242Z 11004KT 02/02 A3022 RMK A01 T00220021  RH  099%=      5-min Rain = 0
KSB1 081243Z 10003KT 02/02 A3022 RMK A01 T00220021  RH  099%=      5-min Rain = 0
KSB1 081244Z 10004KT 02/02 A3022 RMK A01 T00230021  RH  099%=      5-min Rain = 0.01
KSB1 081245Z 09005KT 02/02 A3022 RMK A01 T00220021  RH  099%=      5-min Rain = 0
KSB1 081246Z 09005KT 02/02 A3022 RMK A01 T00220021  RH  099%=      5-min Rain = 0
KSB1 081247Z 08005KT 02/02 A3023 RMK A01 T00220020  RH  099%=      5-min Rain = 0
KSB1 081248Z 09004KT 02/02 A3023 RMK A01 T00220020  RH  099%=      5-min Rain = 0
KSB1 081249Z 09004KT 02/02 A3023 RMK A01 T00220020  RH  099%=      5-min Rain = 0
KSB1 081250Z 09004KT 02/02 A3023 RMK A01 T00220020  RH  099%=      5-min Rain = 0
KSB1 081251Z 10004KT 02/02 A3023 RMK A01 T00220020  RH  099%=      5-min Rain = 0
KSB1 081252Z 10006KT 02/02 A3023 RMK A01 T00220020  RH  099%=      5-min Rain = 0
KSB1 081253Z 10005KT 02/02 A3023 RMK A01 T00220020  RH  099%=      5-min Rain = 0
KSB1 081254Z 10005KT 02/02 A3023 RMK A01 T00220021  RH  099%=      5-min Rain = 0
KSB1 081255Z 10004KT 02/02 A3023 RMK A01 T00220021  RH  099%=      5-min Rain = 0
KSB1 081256Z 10004KT 02/02 A3023 RMK A01 T00220021  RH  099%=      5-min Rain = 0
KSB1 081257Z 10005KT 02/02 A3023 RMK A01 T00230021  RH  099%=      5-min Rain = 0
KSB1 081258Z 11005KT 02/02 A3023 RMK A01 T00220021  RH  099%=      5-min Rain = 0
KSB1 081259Z 10005KT 02/02 A3023 RMK A01 T00220020  RH  099%=      5-min Rain = 0
KSB1 081300Z 11005KT 02/02 A3023 RMK A01 T00210020  RH  099%=      5-min Rain = 0
KSB1 081301Z 10004KT 02/02 A3023 RMK A01 T00210020  RH  099%=      5-min Rain = 0
KSB1 081302Z 12003KT 02/02 A3023 RMK A01 T00210020  RH  099%=      5-min Rain = 0
KSB1 081303Z 10005KT 02/02 A3023 RMK A01 T00220020  RH  099%=      5-min Rain = 0
KSB1 081304Z 11006KT 02/02 A3023 RMK A01 T00220021  RH  099%=      5-min Rain = 0
KSB1 081305Z 11005KT 02/02 A3023 RMK A01 T00230021  RH  099%=      5-min Rain = 0
KSB1 081306Z 10005KT 02/02 A3023 RMK A01 T00230021  RH  099%=      5-min Rain = 0
KSB1 081307Z 11004KT 02/02 A3023 RMK A01 T00230021  RH  099%=      5-min Rain = 0
KSB1 081308Z 10003KT 02/02 A3023 RMK A01 T00230022  RH  099%=      5-min Rain = 0
KSB1 081309Z 10004KT 02/02 A3023 RMK A01 T00230022  RH  099%=      5-min Rain = 0
KSB1 081310Z 09006KT 02/02 A3023 RMK A01 T00230021  RH  099%=      5-min Rain = 0
KSB1 081311Z 09004KT 02/02 A3023 RMK A01 T00220021  RH  099%=      5-min Rain = 0
KSB1 081312Z 10006KT 02/02 A3023 RMK A01 T00220020  RH  099%=      5-min Rain = 0
KSB1 081313Z 09004KT 02/02 A3023 RMK A01 T00220020  RH  099%=      5-min Rain = 0
KSB1 081314Z 10006KT 02/02 A3024 RMK A01 T00210020  RH  099%=      5-min Rain = 0
KSB1 081315Z 10006KT 02/02 A3024 RMK A01 T00210020  RH  099%=      5-min Rain = 0
KSB1 081316Z 10005KT 02/02 A3024 RMK A01 T00220020  RH  099%=      5-min Rain = 0
KSB1 081317Z 09006KT 02/02 A3024 RMK A01 T00210020  RH  099%=      5-min Rain = 0
KSB1 081318Z 10006KT 02/02 A3024 RMK A01 T00210020  RH  099%=      5-min Rain = 0
KSB1 081319Z 11005KT 02/02 A3024 RMK A01 T00210020  RH  099%=      5-min Rain = 0
KSB1 081320Z 10004KT 02/02 A3024 RMK A01 T00210020  RH  099%=      5-min Rain = 0
KSB1 081321Z 10003KT 02/02 A3024 RMK A01 T00220020  RH  099%=      5-min Rain = 0
KSB1 081322Z 09003KT 02/02 A3024 RMK A01 T00220020  RH  099%=      5-min Rain = 0
KSB1 081323Z 09004KT 02/02 A3024 RMK A01 T00220020  RH  099%=      5-min Rain = 0
KSB1 081324Z 09004KT 02/02 A3024 RMK A01 T00220020  RH  099%=      5-min Rain = 0
KSB1 081325Z 08005KT 02/02 A3024 RMK A01 T00220020  RH  099%=      5-min Rain = 0
KSB1 081326Z 10005KT 02/02 A3024 RMK A01 T00220020  RH  099%=      5-min Rain = 0
KSB1 081327Z 10006KT 02/02 A3024 RMK A01 T00220020  RH  099%=      5-min Rain = 0
KSB1 081328Z 10005KT 02/02 A3024 RMK A01 T00210019  RH  099%=      5-min Rain = 0
KSB1 081329Z 10005KT 02/02 A3024 RMK A01 T00220020  RH  099%=      5-min Rain = 0
KSB1 081330Z 11005KT 02/02 A3024 RMK A01 T00220020  RH  099%=      5-min Rain = 0
KSB1 081331Z 11005KT 02/02 A3025 RMK A01 T00210020  RH  099%=      5-min Rain = 0
KSB1 081332Z 09004KT 02/02 A3025 RMK A01 T00220020  RH  099%=      5-min Rain = 0
KSB1 081333Z 10003KT 02/02 A3025 RMK A01 T00220020  RH  099%=      5-min Rain = 0
KSB1 081334Z 12004KT 02/02 A3025 RMK A01 T00220020  RH  099%=      5-min Rain = 0
KSB1 081335Z 11005KT 02/02 A3025 RMK A01 T00210020  RH  099%=      5-min Rain = 0
KSB1 081336Z 11003KT 02/02 A3025 RMK A01 T00220020  RH  099%=      5-min Rain = 0
KSB1 081337Z 11003KT 02/02 A3025 RMK A01 T00210020  RH  099%=      5-min Rain = 0
KSB1 081338Z 11004KT 02/02 A3025 RMK A01 T00220020  RH  099%=      5-min Rain = 0
KSB1 081339Z 12004KT 02/02 A3025 RMK A01 T00220020  RH  099%=      5-min Rain = 0
KSB1 081340Z 10005KT 02/02 A3025 RMK A01 T00210020  RH  099%=      5-min Rain = 0
KSB1 081341Z 11004KT 02/02 A3025 RMK A01 T00220020  RH  099%=      5-min Rain = 0
KSB1 081342Z 10004KT 02/02 A3025 RMK A01 T00220020  RH  099%=      5-min Rain = 0
KSB1 081343Z 10004KT 02/02 A3025 RMK A01 T00220020  RH  099%=      5-min Rain = 0
KSB1 081344Z 11003KT 02/02 A3025 RMK A01 T00220020  RH  099%=      5-min Rain = 0
KSB1 081345Z 10003KT 02/02 A3025 RMK A01 T00220020  RH  099%=      5-min Rain = 0
KSB1 081346Z 11004KT 02/02 A3025 RMK A01 T00210020  RH  099%=      5-min Rain = 0
KSB1 081347Z 11004KT 02/02 A3025 RMK A01 T00220020  RH  099%=      5-min Rain = 0
KSB1 081348Z 13004KT 02/02 A3025 RMK A01 T00210020  RH  099%=      5-min Rain = 0
KSB1 081349Z 12003KT 02/02 A3025 RMK A01 T00210020  RH  099%=      5-min Rain = 0
KSB1 081350Z 11005KT 02/02 A3026 RMK A01 T00210020  RH  099%=      5-min Rain = 0
KSB1 081351Z 11005KT 02/02 A3026 RMK A01 T00210020  RH  099%=      5-min Rain = 0
KSB1 081352Z 10005KT 02/02 A3026 RMK A01 T00210019  RH  099%=      5-min Rain = 0
KSB1 081353Z 10003KT 02/02 A3026 RMK A01 T00210019  RH  099%=      5-min Rain = 0
KSB1 081354Z 12004KT 02/02 A3026 RMK A01 T00210019  RH  099%=      5-min Rain = 0
KSB1 081355Z 11003KT 02/02 A3026 RMK A01 T00210019  RH  099%=      5-min Rain = 0
KSB1 081356Z 12003KT 02/02 A3026 RMK A01 T00210020  RH  099%=      5-min Rain = 0
KSB1 081357Z 12004KT 02/02 A3026 RMK A01 T00210020  RH  099%=      5-min Rain = 0
KSB1 081358Z 12005KT 02/02 A3026 RMK A01 T00210020  RH  099%=      5-min Rain = 0
KSB1 081359Z 11005KT 02/02 A3026 RMK A01 T00210020  RH  099%=      5-min Rain = 0
KSB1 081400Z 12005KT 02/02 A3026 RMK A01 T00210020  RH  099%=      5-min Rain = 0
KSB1 081401Z 11004KT 02/02 A3026 RMK A01 T00210020  RH  099%=      5-min Rain = 0
KSB1 081402Z 11005KT 02/02 A3026 RMK A01 T00210020  RH  099%=      5-min Rain = 0
KSB1 081403Z 12004KT 02/02 A3026 RMK A01 T00220020  RH  099%=      5-min Rain = 0
KSB1 081404Z 11005KT 02/02 A3026 RMK A01 T00220020  RH  099%=      5-min Rain = 0
KSB1 081405Z 11005KT 02/02 A3026 RMK A01 T00220020  RH  099%=      5-min Rain = 0
KSB1 081406Z 10005KT 02/02 A3026 RMK A01 T00210020  RH  099%=      5-min Rain = 0
KSB1 081407Z 10005KT 02/02 A3026 RMK A01 T00210020  RH  099%=      5-min Rain = 0
KSB1 081408Z 11006KT 02/02 A3026 RMK A01 T00210020  RH  099%=      5-min Rain = 0
KSB1 081409Z 12006KT 02/02 A3026 RMK A01 T00210020  RH  099%=      5-min Rain = 0
KSB1 081410Z 11005KT 02/02 A3026 RMK A01 T00210020  RH  099%=      5-min Rain = 0
KSB1 081411Z 11006KT 02/02 A3026 RMK A01 T00210019  RH  099%=      5-min Rain = 0
KSB1 081412Z 11006KT 02/02 A3026 RMK A01 T00200019  RH  099%=      5-min Rain = 0
KSB1 081413Z 11005KT 02/02 A3026 RMK A01 T00210019  RH  099%=      5-min Rain = 0
KSB1 081414Z 11005KT 02/02 A3027 RMK A01 T00210019  RH  099%=      5-min Rain = 0
KSB1 081415Z 11006KT 02/02 A3027 RMK A01 T00200019  RH  099%=      5-min Rain = 0
KSB1 081416Z 12007KT 02/02 A3027 RMK A01 T00210019  RH  099%=      5-min Rain = 0
KSB1 081417Z 11006KT 02/02 A3027 RMK A01 T00210019  RH  099%=      5-min Rain = 0
KSB1 081418Z 10006KT 02/02 A3027 RMK A01 T00200019  RH  099%=      5-min Rain = 0
KSB1 081419Z 10004KT 02/02 A3027 RMK A01 T00200019  RH  099%=      5-min Rain = 0
KSB1 081420Z 09006KT 02/02 A3027 RMK A01 T00210020  RH  099%=      5-min Rain = 0
KSB1 081421Z 10006KT 02/02 A3027 RMK A01 T00210020  RH  099%=      5-min Rain = 0
KSB1 081422Z 10006KT 02/02 A3027 RMK A01 T00210020  RH  099%=      5-min Rain = 0
KSB1 081423Z 10006KT 02/02 A3027 RMK A01 T00210020  RH  099%=      5-min Rain = 0
KSB1 081424Z 09006KT 02/02 A3027 RMK A01 T00210020  RH  099%=      5-min Rain = 0
KSB1 081425Z 10006KT 02/02 A3027 RMK A01 T00210020  RH  099%=      5-min Rain = 0
KSB1 081426Z 10005KT 02/02 A3027 RMK A01 T00210019  RH  099%=      5-min Rain = 0
KSB1 081427Z 11007KT 02/02 A3027 RMK A01 T00200019  RH  099%=      5-min Rain = 0
KSB1 081428Z 11006KT 02/02 A3027 RMK A01 T00210019  RH  099%=      5-min Rain = 0
KSB1 081429Z 11006KT 02/02 A3028 RMK A01 T00210019  RH  099%=      5-min Rain = 0
KSB1 081430Z 11006KT 02/02 A3028 RMK A01 T00210019  RH  099%=      5-min Rain = 0
KSB1 081431Z 11004KT 02/02 A3028 RMK A01 T00210020  RH  099%=      5-min Rain = 0
KSB1 081432Z 11005KT 02/02 A3028 RMK A01 T00210020  RH  099%=      5-min Rain = 0
KSB1 081433Z 10005KT 02/02 A3028 RMK A01 T00210020  RH  099%=      5-min Rain = 0
KSB1 081434Z 10005KT 02/02 A3028 RMK A01 T00220020  RH  099%=      5-min Rain = 0
KSB1 081435Z 11004KT 02/02 A3028 RMK A01 T00210020  RH  099%=      5-min Rain = 0
KSB1 081436Z 12006KT 02/02 A3028 RMK A01 T00220021  RH  099%=      5-min Rain = 0
KSB1 081437Z 11007KT 02/02 A3028 RMK A01 T00220021  RH  099%=      5-min Rain = 0
KSB1 081438Z 11006KT 02/02 A3028 RMK A01 T00210020  RH  099%=      5-min Rain = 0
KSB1 081439Z 11006KT 02/02 A3028 RMK A01 T00210019  RH  099%=      5-min Rain = 0
KSB1 081440Z 11006KT 02/02 A3028 RMK A01 T00210019  RH  099%=      5-min Rain = 0
KSB1 081441Z 12007KT 02/02 A3028 RMK A01 T00200019  RH  099%=      5-min Rain = 0
KSB1 081442Z 12006KT 02/02 A3028 RMK A01 T00210019  RH  099%=      5-min Rain = 0
KSB1 081443Z 11007KT 02/02 A3028 RMK A01 T00200019  RH  099%=      5-min Rain = 0
KSB1 081444Z 11007KT 02/02 A3028 RMK A01 T00200019  RH  099%=      5-min Rain = 0
KSB1 081445Z 11007KT 02/02 A3028 RMK A01 T00210019  RH  099%=      5-min Rain = 0
KSB1 081446Z 11008KT 02/02 A3028 RMK A01 T00210019  RH  099%=      5-min Rain = 0
KSB1 081447Z 11007KT 02/02 A3028 RMK A01 T00210019  RH  099%=      5-min Rain = 0
KSB1 081448Z 12006KT 02/02 A3028 RMK A01 T00210019  RH  099%=      5-min Rain = 0
KSB1 081449Z 12006KT 02/02 A3028 RMK A01 T00200019  RH  099%=      5-min Rain = 0
KSB1 081450Z 11005KT 02/02 A3028 RMK A01 T00210019  RH  099%=      5-min Rain = 0
KSB1 081451Z 11005KT 02/02 A3028 RMK A01 T00210020  RH  099%=      5-min Rain = 0
KSB1 081452Z 11007KT 02/02 A3029 RMK A01 T00210020  RH  099%=      5-min Rain = 0
KSB1 081453Z 11008KT 02/02 A3029 RMK A01 T00210020  RH  099%=      5-min Rain = 0
KSB1 081454Z 11008KT 02/02 A3029 RMK A01 T00200019  RH  099%=      5-min Rain = 0
KSB1 081455Z 11007KT 02/02 A3029 RMK A01 T00200019  RH  099%=      5-min Rain = 0
KSB1 081456Z 10006KT 02/02 A3029 RMK A01 T00210020  RH  099%=      5-min Rain = 0
KSB1 081457Z 11007KT 02/02 A3029 RMK A01 T00210020  RH  099%=      5-min Rain = 0
KSB1 081458Z 10005KT 02/02 A3029 RMK A01 T00210020  RH  099%=      5-min Rain = 0
KSB1 081459Z 11007KT 02/02 A3029 RMK A01 T00210020  RH  099%=      5-min Rain = 0
KSB1 081500Z 11007KT 02/02 A3029 RMK A01 T00200019  RH  099%=      5-min Rain = 0
KSB1 081501Z 11007KT 02/02 A3029 RMK A01 T00200019  RH  099%=      5-min Rain = 0
KSB1 081502Z 11007KT 02/02 A3029 RMK A01 T00200019  RH  099%=      5-min Rain = 0
KSB1 081503Z 11006KT 02/02 A3029 RMK A01 T00200019  RH  099%=      5-min Rain = 0
KSB1 081504Z 11007KT 02/02 A3029 RMK A01 T00200019  RH  099%=      5-min Rain = 0
KSB1 081505Z 12006KT 02/02 A3029 RMK A01 T00210019  RH  099%=      5-min Rain = 0
KSB1 081506Z 12007KT 02/02 A3029 RMK A01 T00200019  RH  099%=      5-min Rain = 0
KSB1 081507Z 13007KT 02/02 A3029 RMK A01 T00210019  RH  099%=      5-min Rain = 0
KSB1 081508Z 13006KT 02/02 A3029 RMK A01 T00200019  RH  099%=      5-min Rain = 0
KSB1 081509Z 12006KT 02/02 A3029 RMK A01 T00210020  RH  099%=      5-min Rain = 0
KSB1 081510Z 12007KT 02/02 A3029 RMK A01 T00210020  RH  099%=      5-min Rain = 0
KSB1 081511Z 12008KT 02/02 A3029 RMK A01 T00210020  RH  099%=      5-min Rain = 0
KSB1 081512Z 12007KT 02/02 A3029 RMK A01 T00200019  RH  099%=      5-min Rain = 0
KSB1 081513Z 12007KT 02/02 A3029 RMK A01 T00210019  RH  099%=      5-min Rain = 0
KSB1 081514Z 12007KT 02/02 A3029 RMK A01 T00200019  RH  099%=      5-min Rain = 0
KSB1 081515Z 11006KT 02/02 A3029 RMK A01 T00200019  RH  099%=      5-min Rain = 0
KSB1 081516Z 11006KT 02/02 A3029 RMK A01 T00200019  RH  099%=      5-min Rain = 0
KSB1 081517Z 12007KT 02/02 A303 RMK A01 T00200019  RH  099%=      5-min Rain = 0
KSB1 081518Z 11008KT 02/02 A303 RMK A01 T00210020  RH  099%=      5-min Rain = 0
KSB1 081519Z 11008KT 02/02 A303 RMK A01 T00200019  RH  099%=      5-min Rain = 0
KSB1 081520Z 12007KT 02/02 A303 RMK A01 T00200019  RH  099%=      5-min Rain = 0
KSB1 081521Z 11006KT 02/02 A303 RMK A01 T00200019  RH  099%=      5-min Rain = 0
KSB1 081522Z 11007KT 02/02 A303 RMK A01 T00200019  RH  099%=      5-min Rain = 0
KSB1 081523Z 11006KT 02/02 A303 RMK A01 T00200019  RH  099%=      5-min Rain = 0
KSB1 081524Z 11007KT 02/02 A303 RMK A01 T00200019  RH  099%=      5-min Rain = 0
KSB1 081525Z 10008KT 02/02 A303 RMK A01 T00200019  RH  099%=      5-min Rain = 0
KSB1 081526Z 11007KT 02/02 A303 RMK A01 T00200018  RH  099%=      5-min Rain = 0
KSB1 081527Z 11006KT 02/02 A303 RMK A01 T00190018  RH  099%=      5-min Rain = 0
KSB1 081528Z 11006KT 02/02 A303 RMK A01 T00190018  RH  099%=      5-min Rain = 0
KSB1 081529Z 11006KT 02/02 A303 RMK A01 T00210019  RH  099%=      5-min Rain = 0
KSB1 081530Z 11005KT 02/02 A303 RMK A01 T00210020  RH  099%=      5-min Rain = 0
KSB1 081531Z 11006KT 02/02 A303 RMK A01 T00210020  RH  099%=      5-min Rain = 0
KSB1 081532Z 11005KT 02/02 A303 RMK A01 T00210020  RH  099%=      5-min Rain = 0
KSB1 081533Z 11006KT 02/02 A303 RMK A01 T00210020  RH  099%=      5-min Rain = 0
KSB1 081534Z 10006KT 02/02 A303 RMK A01 T00220021  RH  099%=      5-min Rain = 0
KSB1 081535Z 11006KT 02/02 A303 RMK A01 T00220021  RH  099%=      5-min Rain = 0
KSB1 081536Z 10008KT 02/02 A303 RMK A01 T00210020  RH  099%=      5-min Rain = 0
KSB1 081537Z 10007KT 02/02 A303 RMK A01 T00220021  RH  099%=      5-min Rain = 0
KSB1 081538Z 10007KT 02/02 A303 RMK A01 T00220021  RH  099%=      5-min Rain = 0
KSB1 081539Z 11006KT 02/02 A303 RMK A01 T00210020  RH  099%=      5-min Rain = 0
KSB1 081540Z 11006KT 02/02 A303 RMK A01 T00210020  RH  099%=      5-min Rain = 0
KSB1 081541Z 11006KT 02/02 A303 RMK A01 T00220020  RH  099%=      5-min Rain = 0
KSB1 081542Z 11007KT 02/02 A303 RMK A01 T00220020  RH  099%=      5-min Rain = 0
KSB1 081543Z 11007KT 02/02 A303 RMK A01 T00210020  RH  099%=      5-min Rain = 0
KSB1 081544Z 12007KT 02/02 A303 RMK A01 T00210020  RH  099%=      5-min Rain = 0
KSB1 081545Z 12007KT 02/02 A303 RMK A01 T00210020  RH  099%=      5-min Rain = 0
KSB1 081546Z 12006KT 02/02 A303 RMK A01 T00210020  RH  099%=      5-min Rain = 0
KSB1 081547Z 12007KT 02/02 A303 RMK A01 T00210020  RH  099%=      5-min Rain = 0
KSB1 081548Z 11007KT 02/02 A303 RMK A01 T00210020  RH  099%=      5-min Rain = 0
KSB1 081549Z 12007KT 02/02 A303 RMK A01 T00210020  RH  099%=      5-min Rain = 0
KSB1 081550Z 12005KT 02/02 A303 RMK A01 T00210020  RH  099%=      5-min Rain = 0
KSB1 081551Z 13007KT 02/02 A303 RMK A01 T00220021  RH  099%=      5-min Rain = 0
KSB1 081552Z 13007KT 02/02 A303 RMK A01 T00220021  RH  099%=      5-min Rain = 0
KSB1 081553Z 11006KT 02/02 A303 RMK A01 T00220021  RH  099%=      5-min Rain = 0
KSB1 081554Z 11007KT 02/02 A303 RMK A01 T00220021  RH  099%=      5-min Rain = 0.01
KSB1 081555Z 12006KT 02/02 A303 RMK A01 T00230022  RH  099%=      5-min Rain = 0
KSB1 081556Z 12007KT 02/02 A303 RMK A01 T00230022  RH  099%=      5-min Rain = 0
KSB1 081557Z 12007KT 02/02 A303 RMK A01 T00240022  RH  099%=      5-min Rain = 0
KSB1 081558Z 12007KT 02/02 A303 RMK A01 T00230022  RH  099%=      5-min Rain = 0
KSB1 081559Z 12008KT 02/02 A303 RMK A01 T00230022  RH  099%=      5-min Rain = 0
KSB1 081600Z 12008KT 02/02 A303 RMK A01 T00220021  RH  099%=      5-min Rain = 0
KSB1 081601Z 11006KT 02/02 A303 RMK A01 T00230022  RH  099%=      5-min Rain = 0
KSB1 081602Z 11007KT 02/02 A303 RMK A01 T00230022  RH  099%=      5-min Rain = 0
KSB1 081603Z 11007KT 02/02 A303 RMK A01 T00230022  RH  099%=      5-min Rain = 0
KSB1 081604Z 13006KT 02/02 A303 RMK A01 T00240022  RH  099%=      5-min Rain = 0
KSB1 081605Z 13006KT 03/02 A303 RMK A01 T00250024  RH  099%=      5-min Rain = 0
KSB1 081606Z 12005KT 03/02 A303 RMK A01 T00250024  RH  099%=      5-min Rain = 0
KSB1 081607Z 12006KT 03/02 A303 RMK A01 T00250023  RH  099%=      5-min Rain = 0
KSB1 081608Z 12006KT 03/02 A303 RMK A01 T00250024  RH  099%=      5-min Rain = 0
KSB1 081609Z 12006KT 03/02 A303 RMK A01 T00250024  RH  099%=      5-min Rain = 0
KSB1 081610Z 11007KT 02/02 A303 RMK A01 T00240023  RH  099%=      5-min Rain = 0
KSB1 081611Z 12007KT 02/02 A303 RMK A01 T00240023  RH  099%=      5-min Rain = 0
KSB1 081612Z 11006KT 02/02 A303 RMK A01 T00240023  RH  099%=      5-min Rain = 0
KSB1 081613Z 12007KT 02/02 A303 RMK A01 T00240022  RH  099%=      5-min Rain = 0
KSB1 081614Z 12007KT 02/02 A303 RMK A01 T00240022  RH  099%=      5-min Rain = 0
KSB1 081615Z 11006KT 02/02 A303 RMK A01 T00230022  RH  099%=      5-min Rain = 0
KSB1 081616Z 12006KT 02/02 A3031 RMK A01 T00240022  RH  099%=      5-min Rain = 0
KSB1 081617Z 11005KT 02/02 A3031 RMK A01 T00230022  RH  099%=      5-min Rain = 0
KSB1 081618Z 12006KT 02/02 A3031 RMK A01 T00240022  RH  099%=      5-min Rain = 0
KSB1 081619Z 12005KT 02/02 A3031 RMK A01 T00240023  RH  099%=      5-min Rain = 0
KSB1 081620Z 13005KT 02/02 A3031 RMK A01 T00240023  RH  099%=      5-min Rain = 0
KSB1 081621Z 13006KT 02/02 A3031 RMK A01 T00240023  RH  099%=      5-min Rain = 0
KSB1 081622Z 12006KT 02/02 A3031 RMK A01 T00240022  RH  099%=      5-min Rain = 0
KSB1 081623Z 12005KT 02/02 A3031 RMK A01 T00240023  RH  099%=      5-min Rain = 0
KSB1 081624Z 11005KT 02/02 A3031 RMK A01 T00240023  RH  099%=      5-min Rain = 0
KSB1 081625Z 11004KT 02/02 A3031 RMK A01 T00240023  RH  099%=      5-min Rain = 0
KSB1 081626Z 12004KT 03/02 A3031 RMK A01 T00250023  RH  099%=      5-min Rain = 0
KSB1 081627Z 13003KT 03/02 A3032 RMK A01 T00250023  RH  099%=      5-min Rain = 0
KSB1 081628Z 13003KT 03/02 A3032 RMK A01 T00250024  RH  099%=      5-min Rain = 0
KSB1 081629Z 11004KT 03/03 A3032 RMK A01 T00260025  RH  099%=      5-min Rain = 0
KSB1 081630Z 13004KT 03/03 A3032 RMK A01 T00260025  RH  099%=      5-min Rain = 0
KSB1 081631Z 12004KT 03/03 A3032 RMK A01 T00270025  RH  099%=      5-min Rain = 0
KSB1 081632Z 12004KT 03/02 A3031 RMK A01 T00260024  RH  099%=      5-min Rain = 0
KSB1 081633Z 11004KT 03/02 A3032 RMK A01 T00260024  RH  099%=      5-min Rain = 0
KSB1 081634Z 11004KT 03/03 A3032 RMK A01 T00270025  RH  099%=      5-min Rain = 0
KSB1 081635Z 12003KT 03/03 A3032 RMK A01 T00270025  RH  099%=      5-min Rain = 0
KSB1 081636Z 12004KT 03/02 A3032 RMK A01 T00260024  RH  098%=      5-min Rain = 0
KSB1 081637Z 12005KT 03/02 A3032 RMK A01 T00260024  RH  098%=      5-min Rain = 0
KSB1 081638Z 12005KT 03/02 A3032 RMK A01 T00260024  RH  098%=      5-min Rain = 0
KSB1 081639Z 13004KT 03/02 A3032 RMK A01 T00270024  RH  098%=      5-min Rain = 0
KSB1 081640Z 12004KT 03/03 A3032 RMK A01 T00270025  RH  098%=      5-min Rain = 0
KSB1 081641Z 13004KT 03/03 A3032 RMK A01 T00280025  RH  098%=      5-min Rain = 0
KSB1 081642Z 13004KT 03/03 A3031 RMK A01 T00290026  RH  098%=      5-min Rain = 0
KSB1 081643Z 13004KT 03/03 A3031 RMK A01 T00300028  RH  098%=      5-min Rain = 0
KSB1 081644Z 12005KT 03/03 A3031 RMK A01 T00310028  RH  098%=      5-min Rain = 0
KSB1 081645Z 12005KT 03/03 A3031 RMK A01 T00300027  RH  098%=      5-min Rain = 0
KSB1 081646Z 12005KT 03/03 A3031 RMK A01 T00300027  RH  098%=      5-min Rain = 0
KSB1 081647Z 13004KT 03/03 A3031 RMK A01 T00300026  RH  098%=      5-min Rain = 0
KSB1 081648Z 12005KT 03/03 A3032 RMK A01 T00300027  RH  098%=      5-min Rain = 0
KSB1 081649Z 12005KT 03/03 A3032 RMK A01 T00300026  RH  097%=      5-min Rain = 0
KSB1 081650Z 12005KT 03/02 A3032 RMK A01 T00290024  RH  097%=      5-min Rain = 0
KSB1 081651Z 12006KT 03/03 A3032 RMK A01 T00290025  RH  097%=      5-min Rain = 0
KSB1 081652Z 12006KT 03/02 A3032 RMK A01 T00290024  RH  097%=      5-min Rain = 0
KSB1 081653Z 12004KT 03/02 A3032 RMK A01 T00290024  RH  097%=      5-min Rain = 0
KSB1 081654Z 10004KT 03/03 A3032 RMK A01 T00290025  RH  097%=      5-min Rain = 0
KSB1 081655Z 09004KT 03/03 A3032 RMK A01 T00310026  RH  097%=      5-min Rain = 0
KSB1 081656Z 10003KT 03/03 A3032 RMK A01 T00310027  RH  097%=      5-min Rain = 0
KSB1 081657Z 11005KT 03/03 A3032 RMK A01 T00320027  RH  097%=      5-min Rain = 0
KSB1 081658Z 11004KT 03/03 A3032 RMK A01 T00310026  RH  097%=      5-min Rain = 0
KSB1 081659Z 12004KT 03/02 A3032 RMK A01 T00300024  RH  096%=      5-min Rain = 0
KSB1 081700Z 13004KT 03/02 A3032 RMK A01 T00300023  RH  096%=      5-min Rain = 0
KSB1 081701Z 12004KT 03/02 A3032 RMK A01 T00300023  RH  096%=      5-min Rain = 0
KSB1 081702Z 12004KT 03/03 A3032 RMK A01 T00310025  RH  096%=      5-min Rain = 0
KSB1 081703Z 12004KT 03/02 A3032 RMK A01 T00310024  RH  095%=      5-min Rain = 0
KSB1 081704Z 11004KT 03/02 A3033 RMK A01 T00300023  RH  095%=      5-min Rain = 0
KSB1 081705Z 09004KT 03/02 A3033 RMK A01 T00310023  RH  095%=      5-min Rain = 0
KSB1 081706Z 09003KT 03/02 A3033 RMK A01 T00310024  RH  095%=      5-min Rain = 0
KSB1 081707Z 11004KT 03/02 A3033 RMK A01 T00310023  RH  095%=      5-min Rain = 0
KSB1 081708Z 09005KT 03/02 A3033 RMK A01 T00310022  RH  094%=      5-min Rain = 0
KSB1 081709Z 09005KT 03/02 A3033 RMK A01 T00310022  RH  094%=      5-min Rain = 0
KSB1 081710Z 08004KT 03/02 A3033 RMK A01 T00310023  RH  094%=      5-min Rain = 0
KSB1 081711Z 09005KT 03/02 A3033 RMK A01 T00320023  RH  094%=      5-min Rain = 0
KSB1 081712Z 09004KT 03/02 A3033 RMK A01 T00320023  RH  094%=      5-min Rain = 0
KSB1 081713Z 10003KT 03/02 A3033 RMK A01 T00320023  RH  094%=      5-min Rain = 0
KSB1 081714Z 09002KT 03/02 A3033 RMK A01 T00320023  RH  094%=      5-min Rain = 0
KSB1 081715Z 08004KT 03/03 A3033 RMK A01 T00340025  RH  094%=      5-min Rain = 0
KSB1 081716Z 09003KT 04/03 A3033 RMK A01 T00350025  RH  094%=      5-min Rain = 0
KSB1 081717Z 10003KT 03/02 A3033 RMK A01 T00340023  RH  093%=      5-min Rain = 0
KSB1 081718Z 12003KT 03/02 A3033 RMK A01 T00340023  RH  093%=      5-min Rain = 0
KSB1 081719Z 12002KT 03/02 A3033 RMK A01 T00340023  RH  093%=      5-min Rain = 0
KSB1 081720Z 13002KT 03/02 A3032 RMK A01 T00340023  RH  093%=      5-min Rain = 0
KSB1 081721Z 13004KT 04/03 A3032 RMK A01 T00360026  RH  093%=      5-min Rain = 0
KSB1 081722Z 12003KT 04/03 A3032 RMK A01 T00370027  RH  093%=      5-min Rain = 0
KSB1 081723Z 10003KT 04/03 A3032 RMK A01 T00370027  RH  093%=      5-min Rain = 0
KSB1 081724Z 11003KT 04/03 A3032 RMK A01 T00370026  RH  093%=      5-min Rain = 0
KSB1 081725Z 10004KT 04/03 A3032 RMK A01 T00370026  RH  093%=      5-min Rain = 0
KSB1 081726Z 09003KT 04/03 A3032 RMK A01 T00370026  RH  093%=      5-min Rain = 0
KSB1 081727Z 09004KT 04/03 A3032 RMK A01 T00370027  RH  093%=      5-min Rain = 0
KSB1 081728Z 10004KT 04/03 A3032 RMK A01 T00370027  RH  093%=      5-min Rain = 0
KSB1 081729Z 12004KT 04/03 A3032 RMK A01 T00370026  RH  093%=      5-min Rain = 0
KSB1 081730Z 14003KT 04/03 A3032 RMK A01 T00370026  RH  093%=      5-min Rain = 0
KSB1 081731Z 13003KT 04/03 A3032 RMK A01 T00380027  RH  093%=      5-min Rain = 0
KSB1 081732Z 13003KT 04/03 A3032 RMK A01 T00390029  RH  093%=      5-min Rain = 0
KSB1 081733Z 12003KT 04/03 A3033 RMK A01 T00390028  RH  092%=      5-min Rain = 0
KSB1 081734Z 10001KT 04/03 A3033 RMK A01 T00390028  RH  092%=      5-min Rain = 0
KSB1 081735Z 09003KT 04/03 A3033 RMK A01 T00390028  RH  092%=      5-min Rain = 0
KSB1 081736Z 12002KT 04/03 A3033 RMK A01 T00400028  RH  092%=      5-min Rain = 0
KSB1 081737Z 10001KT 04/03 A3033 RMK A01 T00390026  RH  091%=      5-min Rain = 0
KSB1 081738Z 06001KT 04/03 A3033 RMK A01 T00390025  RH  091%=      5-min Rain = 0
KSB1 081739Z 08000KT 04/02 A3033 RMK A01 T00380024  RH  091%=      5-min Rain = 0
KSB1 081740Z 10001KT 04/02 A3033 RMK A01 T00380024  RH  090%=      5-min Rain = 0
KSB1 081741Z 10001KT 04/02 A3033 RMK A01 T00380024  RH  090%=      5-min Rain = 0
KSB1 081742Z 09001KT 04/02 A3033 RMK A01 T00380024  RH  090%=      5-min Rain = 0
KSB1 081743Z 08001KT 04/02 A3033 RMK A01 T00370022  RH  090%=      5-min Rain = 0
KSB1 081744Z 07000KT 04/02 A3033 RMK A01 T00370022  RH  090%=      5-min Rain = 0
KSB1 081745Z 01000KT 04/02 A3033 RMK A01 T00370022  RH  090%=      5-min Rain = 0
KSB1 081746Z 36000KT 04/02 A3033 RMK A01 T00370023  RH  090%=      5-min Rain = 0
KSB1 081747Z 10000KT 04/02 A3033 RMK A01 T00380024  RH  090%=      5-min Rain = 0
KSB1 081748Z 12000KT 04/03 A3033 RMK A01 T00390025  RH  090%=      5-min Rain = 0
KSB1 081749Z 12000KT 04/02 A3033 RMK A01 T00390024  RH  090%=      5-min Rain = 0
KSB1 081750Z 13001KT 04/02 A3033 RMK A01 T00390024  RH  090%=      5-min Rain = 0
KSB1 081751Z 14001KT 04/02 A3033 RMK A01 T00400024  RH  090%=      5-min Rain = 0
KSB1 081752Z 20000KT 04/02 A3033 RMK A01 T00390024  RH  090%=      5-min Rain = 0
KSB1 081753Z 07000KT 04/02 A3033 RMK A01 T00400024  RH  090%=      5-min Rain = 0
KSB1 081754Z 09002KT 04/03 A3032 RMK A01 T00400025  RH  090%=      5-min Rain = 0
KSB1 081755Z 10003KT 04/03 A3032 RMK A01 T00420028  RH  091%=      5-min Rain = 0
KSB1 081756Z 10002KT 04/03 A3032 RMK A01 T00420027  RH  090%=      5-min Rain = 0
KSB1 081757Z 10003KT 04/03 A3032 RMK A01 T00410026  RH  090%=      5-min Rain = 0
KSB1 081758Z 10002KT 04/03 A3032 RMK A01 T00410025  RH  090%=      5-min Rain = 0
KSB1 081759Z 13001KT 04/02 A3032 RMK A01 T00400024  RH  089%=      5-min Rain = 0
KSB1 081800Z 11002KT 04/03 A3032 RMK A01 T00400025  RH  090%=      5-min Rain = 0
KSB1 081801Z 13003KT 04/03 A3032 RMK A01 T00410027  RH  090%=      5-min Rain = 0
KSB1 081802Z 13004KT 04/03 A3031 RMK A01 T00440031  RH  091%=      5-min Rain = 0
KSB1 081803Z 13003KT 05/03 A3031 RMK A01 T00450030  RH  090%=      5-min Rain = 0
KSB1 081804Z 15003KT 05/03 A3031 RMK A01 T00450030  RH  090%=      5-min Rain = 0
KSB1 081805Z 15002KT 05/03 A3031 RMK A01 T00460029  RH  089%=      5-min Rain = 0
KSB1 081806Z 08001KT 05/03 A3031 RMK A01 T00460029  RH  089%=      5-min Rain = 0
KSB1 081807Z 10003KT 05/03 A3031 RMK A01 T00480031  RH  089%=      5-min Rain = 0
KSB1 081808Z 09003KT 05/03 A3031 RMK A01 T00470028  RH  087%=      5-min Rain = 0
KSB1 081809Z 07003KT 05/03 A3031 RMK A01 T00470028  RH  087%=      5-min Rain = 0
KSB1 081810Z 07002KT 05/03 A3031 RMK A01 T00460027  RH  087%=      5-min Rain = 0
KSB1 081811Z 06002KT 05/03 A3031 RMK A01 T00460027  RH  087%=      5-min Rain = 0
KSB1 081812Z 07003KT 05/03 A3031 RMK A01 T00470030  RH  089%=      5-min Rain = 0
KSB1 081813Z 06002KT 05/03 A3031 RMK A01 T00470028  RH  088%=      5-min Rain = 0
KSB1 081814Z 06001KT 05/02 A3031 RMK A01 T00450024  RH  086%=      5-min Rain = 0
KSB1 081815Z 08002KT 05/03 A3031 RMK A01 T00460027  RH  088%=      5-min Rain = 0
KSB1 081816Z 07003KT 05/03 A3031 RMK A01 T00470030  RH  089%=      5-min Rain = 0
KSB1 081817Z 07005KT 05/03 A3031 RMK A01 T00490032  RH  089%=      5-min Rain = 0
KSB1 081818Z 06003KT 05/03 A3031 RMK A01 T00470028  RH  087%=      5-min Rain = 0
KSB1 081819Z 06002KT 05/03 A3031 RMK A01 T00460025  RH  087%=      5-min Rain = 0
KSB1 081820Z 10004KT 05/03 A3031 RMK A01 T00460028  RH  088%=      5-min Rain = 0
KSB1 081821Z 10003KT 05/03 A3031 RMK A01 T00470029  RH  088%=      5-min Rain = 0
KSB1 081822Z 11002KT 05/03 A3031 RMK A01 T00460026  RH  087%=      5-min Rain = 0
KSB1 081823Z 10002KT 05/03 A3031 RMK A01 T00450025  RH  087%=      5-min Rain = 0
KSB1 081824Z 10003KT 05/03 A3031 RMK A01 T00460027  RH  088%=      5-min Rain = 0
KSB1 081825Z 09003KT 05/03 A3031 RMK A01 T00480030  RH  088%=      5-min Rain = 0
KSB1 081826Z 09002KT 05/03 A3031 RMK A01 T00470028  RH  087%=      5-min Rain = 0
KSB1 081827Z 09003KT 05/03 A3031 RMK A01 T00460026  RH  087%=      5-min Rain = 0
KSB1 081828Z 09003KT 05/03 A3031 RMK A01 T00460026  RH  087%=      5-min Rain = 0
KSB1 081829Z 08002KT 05/03 A303 RMK A01 T00460026  RH  087%=      5-min Rain = 0
KSB1 081830Z 07002KT 05/03 A303 RMK A01 T00470028  RH  088%=      5-min Rain = 0
KSB1 081831Z 07003KT 05/03 A303 RMK A01 T00480030  RH  088%=      5-min Rain = 0
KSB1 081832Z 07002KT 05/03 A3031 RMK A01 T00490030  RH  088%=      5-min Rain = 0
KSB1 081833Z 08002KT 05/03 A3031 RMK A01 T00480027  RH  086%=      5-min Rain = 0
KSB1 081834Z 06001KT 05/03 A3031 RMK A01 T00470026  RH  086%=      5-min Rain = 0
KSB1 081835Z 08001KT 05/03 A3031 RMK A01 T00470026  RH  086%=      5-min Rain = 0
KSB1 081836Z 11001KT 05/03 A303 RMK A01 T00470028  RH  087%=      5-min Rain = 0
KSB1 081837Z 10003KT 05/03 A303 RMK A01 T00480027  RH  087%=      5-min Rain = 0
KSB1 081838Z 09001KT 05/03 A303 RMK A01 T00480027  RH  086%=      5-min Rain = 0
KSB1 081839Z 08003KT 05/03 A303 RMK A01 T00480027  RH  087%=      5-min Rain = 0
KSB1 081840Z 07004KT 05/03 A303 RMK A01 T00490030  RH  088%=      5-min Rain = 0
KSB1 081841Z 08002KT 05/03 A303 RMK A01 T00500029  RH  087%=      5-min Rain = 0
KSB1 081842Z 09002KT 05/03 A303 RMK A01 T00500029  RH  086%=      5-min Rain = 0
KSB1 081843Z 09001KT 05/03 A303 RMK A01 T00490027  RH  086%=      5-min Rain = 0
KSB1 081844Z 06001KT 05/03 A303 RMK A01 T00490028  RH  086%=      5-min Rain = 0
KSB1 081845Z 08002KT 05/03 A303 RMK A01 T00500030  RH  087%=      5-min Rain = 0
KSB1 081846Z 08004KT 05/03 A303 RMK A01 T00510031  RH  087%=      5-min Rain = 0
KSB1 081847Z 08002KT 05/03 A303 RMK A01 T00520031  RH  086%=      5-min Rain = 0
KSB1 081848Z 10004KT 05/03 A303 RMK A01 T00520030  RH  086%=      5-min Rain = 0
KSB1 081849Z 07002KT 05/03 A303 RMK A01 T00510029  RH  086%=      5-min Rain = 0
KSB1 081850Z 08001KT 05/03 A303 RMK A01 T00500028  RH  085%=      5-min Rain = 0
KSB1 081851Z 01001KT 05/03 A303 RMK A01 T00500028  RH  086%=      5-min Rain = 0
KSB1 081852Z 35000KT 05/03 A303 RMK A01 T00510029  RH  086%=      5-min Rain = 0
KSB1 081853Z 32000KT 05/03 A303 RMK A01 T00500028  RH  086%=      5-min Rain = 0
KSB1 081854Z 00000KT 05/03 A303 RMK A01 T00500028  RH  085%=      5-min Rain = 0
KSB1 081855Z 22000KT 05/03 A303 RMK A01 T00500028  RH  085%=      5-min Rain = 0
KSB1 081856Z 20001KT 05/03 A3029 RMK A01 T00500028  RH  085%=      5-min Rain = 0
KSB1 081857Z 21002KT 05/03 A3029 RMK A01 T00500028  RH  086%=      5-min Rain = 0
KSB1 081858Z 22002KT 05/03 A3029 RMK A01 T00500027  RH  085%=      5-min Rain = 0
KSB1 081859Z 23001KT 05/03 A3029 RMK A01 T00500028  RH  086%=      5-min Rain = 0
KSB1 081900Z 22002KT 05/03 A3029 RMK A01 T00510030  RH  087%=      5-min Rain = 0
KSB1 081901Z 16002KT 05/03 A3029 RMK A01 T00520032  RH  087%=      5-min Rain = 0
KSB1 081902Z 16001KT 05/03 A3029 RMK A01 T00520031  RH  086%=      5-min Rain = 0
KSB1 081903Z 16000KT 05/03 A3029 RMK A01 T00520029  RH  085%=      5-min Rain = 0
KSB1 081904Z 16000KT 05/03 A3029 RMK A01 T00520029  RH  085%=      5-min Rain = 0
KSB1 081905Z 19001KT 05/03 A3029 RMK A01 T00530030  RH  085%=      5-min Rain = 0
KSB1 081906Z 00000KT 05/03 A3029 RMK A01 T00530029  RH  084%=      5-min Rain = 0
KSB1 081907Z 00000KT 05/03 A3029 RMK A01 T00530028  RH  084%=      5-min Rain = 0
KSB1 081908Z 15002KT 05/03 A3029 RMK A01 T00540030  RH  084%=      5-min Rain = 0
KSB1 081909Z 15001KT 06/03 A3029 RMK A01 T00560032  RH  085%=      5-min Rain = 0
KSB1 081910Z 15001KT 06/03 A3029 RMK A01 T00570031  RH  084%=      5-min Rain = 0
KSB1 081911Z 14002KT 06/03 A3029 RMK A01 T00570031  RH  083%=      5-min Rain = 0
KSB1 081912Z 13002KT 06/03 A3029 RMK A01 T00580030  RH  082%=      5-min Rain = 0
KSB1 081913Z 11001KT 06/03 A3029 RMK A01 T00570028  RH  082%=      5-min Rain = 0
KSB1 081914Z 13002KT 06/03 A3029 RMK A01 T00570029  RH  082%=      5-min Rain = 0
KSB1 081915Z 14001KT 06/03 A3028 RMK A01 T00570029  RH  082%=      5-min Rain = 0
KSB1 081916Z 16001KT 06/03 A3028 RMK A01 T00570030  RH  083%=      5-min Rain = 0
KSB1 081917Z 15001KT 06/03 A3028 RMK A01 T00580030  RH  082%=      5-min Rain = 0
KSB1 081918Z 17001KT 06/03 A3028 RMK A01 T00580030  RH  082%=      5-min Rain = 0
KSB1 081919Z 16000KT 06/03 A3028 RMK A01 T00580031  RH  083%=      5-min Rain = 0
KSB1 081920Z 17001KT 06/03 A3028 RMK A01 T00580030  RH  082%=      5-min Rain = 0
KSB1 081921Z 15000KT 06/03 A3028 RMK A01 T00580030  RH  082%=      5-min Rain = 0
KSB1 081922Z 19000KT 06/03 A3028 RMK A01 T00580030  RH  082%=      5-min Rain = 0
KSB1 081923Z 00000KT 06/03 A3028 RMK A01 T00580030  RH  082%=      5-min Rain = 0
KSB1 081924Z 00000KT 06/03 A3028 RMK A01 T00590032  RH  083%=      5-min Rain = 0
KSB1 081925Z 16000KT 06/03 A3028 RMK A01 T00600034  RH  083%=      5-min Rain = 0
KSB1 081926Z 14001KT 06/03 A3028 RMK A01 T00610034  RH  083%=      5-min Rain = 0
KSB1 081927Z 15001KT 06/03 A3028 RMK A01 T00610033  RH  082%=      5-min Rain = 0
KSB1 081928Z 13001KT 06/03 A3028 RMK A01 T00610032  RH  082%=      5-min Rain = 0
KSB1 081929Z 09000KT 06/03 A3028 RMK A01 T00600031  RH  082%=      5-min Rain = 0
KSB1 081930Z 06000KT 06/03 A3028 RMK A01 T00600033  RH  083%=      5-min Rain = 0
KSB1 081931Z 00000KT 06/03 A3028 RMK A01 T00600033  RH  083%=      5-min Rain = 0
KSB1 081932Z 34000KT 06/03 A3028 RMK A01 T00600034  RH  083%=      5-min Rain = 0
KSB1 081933Z 30001KT 06/03 A3028 RMK A01 T00610034  RH  083%=      5-min Rain = 0
KSB1 081934Z 29002KT 06/03 A3028 RMK A01 T00600034  RH  083%=      5-min Rain = 0
KSB1 081935Z 30001KT 06/03 A3028 RMK A01 T00600032  RH  082%=      5-min Rain = 0
KSB1 081936Z 30000KT 06/03 A3028 RMK A01 T00590030  RH  082%=      5-min Rain = 0
KSB1 081937Z 00000KT 06/03 A3028 RMK A01 T00580031  RH  083%=      5-min Rain = 0
KSB1 081938Z 28000KT 06/03 A3028 RMK A01 T00590032  RH  083%=      5-min Rain = 0
KSB1 081939Z 29001KT 06/03 A3028 RMK A01 T00590033  RH  083%=      5-min Rain = 0
KSB1 081940Z 31001KT 06/03 A3028 RMK A01 T00600034  RH  083%=      5-min Rain = 0
KSB1 081941Z 32001KT 06/03 A3028 RMK A01 T00600034  RH  083%=      5-min Rain = 0
KSB1 081942Z 29002KT 06/03 A3028 RMK A01 T00600034  RH  083%=      5-min Rain = 0
KSB1 081943Z 29002KT 06/03 A3028 RMK A01 T00600034  RH  083%=      5-min Rain = 0
KSB1 081944Z 26002KT 06/03 A3028 RMK A01 T00610034  RH  083%=      5-min Rain = 0
KSB1 081945Z 24001KT 06/03 A3028 RMK A01 T00610034  RH  083%=      5-min Rain = 0
KSB1 081946Z 22001KT 06/03 A3027 RMK A01 T00600033  RH  083%=      5-min Rain = 0
KSB1 081947Z 21001KT 06/03 A3027 RMK A01 T00600034  RH  083%=      5-min Rain = 0
KSB1 081948Z 24001KT 06/03 A3027 RMK A01 T00610034  RH  083%=      5-min Rain = 0
KSB1 081949Z 29002KT 06/03 A3027 RMK A01 T00610033  RH  083%=      5-min Rain = 0
KSB1 081950Z 29003KT 06/03 A3027 RMK A01 T00600034  RH  083%=      5-min Rain = 0
KSB1 081951Z 28003KT 06/03 A3027 RMK A01 T00600034  RH  083%=      5-min Rain = 0
KSB1 081952Z 28002KT 06/04 A3027 RMK A01 T00600035  RH  084%=      5-min Rain = 0
KSB1 081953Z 29002KT 06/04 A3027 RMK A01 T00610035  RH  084%=      5-min Rain = 0
KSB1 081954Z 28002KT 06/04 A3027 RMK A01 T00610035  RH  083%=      5-min Rain = 0
KSB1 081955Z 26002KT 06/04 A3027 RMK A01 T00600035  RH  083%=      5-min Rain = 0
KSB1 081956Z 24001KT 06/03 A3027 RMK A01 T00600034  RH  083%=      5-min Rain = 0
KSB1 081957Z 25001KT 06/03 A3027 RMK A01 T00610034  RH  083%=      5-min Rain = 0
KSB1 081958Z 26000KT 06/03 A3027 RMK A01 T00610034  RH  083%=      5-min Rain = 0
KSB1 081959Z 00000KT 06/03 A3027 RMK A01 T00610033  RH  083%=      5-min Rain = 0
KSB1 082000Z 26001KT 06/03 A3027 RMK A01 T00600032  RH  083%=      5-min Rain = 0
KSB1 082001Z 28002KT 06/03 A3027 RMK A01 T00600033  RH  083%=      5-min Rain = 0
KSB1 082002Z 34001KT 06/03 A3027 RMK A01 T00600033  RH  083%=      5-min Rain = 0
KSB1 082003Z 29001KT 06/03 A3027 RMK A01 T00600033  RH  083%=      5-min Rain = 0
KSB1 082004Z 27001KT 06/03 A3027 RMK A01 T00600034  RH  083%=      5-min Rain = 0
KSB1 082005Z 00000KT 06/04 A3027 RMK A01 T00610035  RH  083%=      5-min Rain = 0
KSB1 082006Z 25000KT 06/04 A3027 RMK A01 T00610036  RH  084%=      5-min Rain = 0
KSB1 082007Z 27001KT 06/04 A3027 RMK A01 T00620036  RH  084%=      5-min Rain = 0
KSB1 082008Z 23000KT 06/03 A3027 RMK A01 T00620034  RH  083%=      5-min Rain = 0
KSB1 082009Z 26000KT 06/04 A3027 RMK A01 T00620035  RH  083%=      5-min Rain = 0
KSB1 082010Z 31000KT 06/04 A3027 RMK A01 T00630037  RH  084%=      5-min Rain = 0
KSB1 082011Z 31002KT 06/04 A3027 RMK A01 T00630037  RH  083%=      5-min Rain = 0
KSB1 082012Z 31002KT 06/04 A3027 RMK A01 T00630036  RH  083%=      5-min Rain = 0
KSB1 082013Z 32003KT 06/04 A3027 RMK A01 T00630037  RH  083%=      5-min Rain = 0
KSB1 082014Z 32002KT 06/04 A3027 RMK A01 T00630035  RH  083%=      5-min Rain = 0
KSB1 082015Z 32002KT 06/04 A3027 RMK A01 T00620035  RH  083%=      5-min Rain = 0
KSB1 082016Z 30002KT 06/04 A3027 RMK A01 T00620036  RH  083%=      5-min Rain = 0
KSB1 082017Z 25001KT 06/04 A3027 RMK A01 T00620037  RH  084%=      5-min Rain = 0
KSB1 082018Z 26001KT 06/04 A3027 RMK A01 T00630039  RH  084%=      5-min Rain = 0
KSB1 082019Z 32001KT 06/04 A3027 RMK A01 T00640039  RH  084%=      5-min Rain = 0
KSB1 082020Z 32002KT 06/04 A3027 RMK A01 T00640038  RH  084%=      5-min Rain = 0
KSB1 082021Z 33002KT 06/04 A3027 RMK A01 T00630037  RH  084%=      5-min Rain = 0
KSB1 082022Z 34001KT 06/04 A3027 RMK A01 T00630037  RH  083%=      5-min Rain = 0
KSB1 082023Z 29002KT 06/04 A3027 RMK A01 T00630038  RH  084%=      5-min Rain = 0
KSB1 082024Z 27002KT 06/04 A3027 RMK A01 T00630038  RH  084%=      5-min Rain = 0
KSB1 082025Z 26003KT 06/04 A3027 RMK A01 T00630038  RH  084%=      5-min Rain = 0
KSB1 082026Z 26002KT 06/04 A3027 RMK A01 T00640038  RH  084%=      5-min Rain = 0
KSB1 082027Z 26003KT 06/04 A3027 RMK A01 T00630037  RH  084%=      5-min Rain = 0
KSB1 082028Z 24002KT 06/04 A3027 RMK A01 T00620036  RH  083%=      5-min Rain = 0
KSB1 082029Z 24001KT 06/04 A3027 RMK A01 T00620037  RH  084%=      5-min Rain = 0
KSB1 082030Z 28001KT 06/04 A3027 RMK A01 T00620036  RH  083%=      5-min Rain = 0
KSB1 082031Z 35001KT 06/04 A3027 RMK A01 T00620038  RH  085%=      5-min Rain = 0
KSB1 082032Z 00000KT 06/04 A3027 RMK A01 T00630038  RH  084%=      5-min Rain = 0
KSB1 082033Z 27000KT 06/04 A3027 RMK A01 T00630037  RH  084%=      5-min Rain = 0
KSB1 082034Z 26001KT 06/04 A3027 RMK A01 T00630037  RH  084%=      5-min Rain = 0
KSB1 082035Z 33000KT 06/04 A3027 RMK A01 T00630037  RH  083%=      5-min Rain = 0
KSB1 082036Z 35001KT 06/04 A3027 RMK A01 T00630037  RH  084%=      5-min Rain = 0
KSB1 082037Z 34001KT 06/04 A3027 RMK A01 T00630039  RH  084%=      5-min Rain = 0
KSB1 082038Z 34000KT 06/04 A3027 RMK A01 T00640039  RH  084%=      5-min Rain = 0
KSB1 082039Z 31001KT 06/04 A3027 RMK A01 T00640039  RH  084%=      5-min Rain = 0
KSB1 082040Z 30001KT 06/04 A3027 RMK A01 T00640039  RH  084%=      5-min Rain = 0
KSB1 082041Z 32000KT 07/04 A3026 RMK A01 T00650039  RH  084%=      5-min Rain = 0
KSB1 082042Z 03000KT 07/04 A3026 RMK A01 T00650040  RH  084%=      5-min Rain = 0
KSB1 082043Z 00000KT 07/04 A3026 RMK A01 T00660040  RH  084%=      5-min Rain = 0
KSB1 082044Z 36001KT 07/04 A3026 RMK A01 T00660039  RH  083%=      5-min Rain = 0
KSB1 082045Z 01001KT 07/04 A3026 RMK A01 T00660038  RH  083%=      5-min Rain = 0
KSB1 082046Z 04003KT 07/04 A3026 RMK A01 T00660039  RH  083%=      5-min Rain = 0
KSB1 082047Z 05002KT 07/04 A3026 RMK A01 T00660038  RH  082%=      5-min Rain = 0
KSB1 082048Z 04002KT 07/04 A3026 RMK A01 T00660040  RH  083%=      5-min Rain = 0
KSB1 082049Z 03002KT 07/04 A3026 RMK A01 T00670039  RH  083%=      5-min Rain = 0
KSB1 082050Z 02001KT 07/04 A3026 RMK A01 T00660039  RH  083%=      5-min Rain = 0
KSB1 082051Z 02001KT 07/04 A3026 RMK A01 T00660039  RH  083%=      5-min Rain = 0
KSB1 082052Z 02001KT 07/04 A3026 RMK A01 T00660038  RH  083%=      5-min Rain = 0
KSB1 082053Z 36000KT 07/04 A3026 RMK A01 T00660038  RH  083%=      5-min Rain = 0
KSB1 082054Z 26000KT 07/04 A3026 RMK A01 T00660041  RH  084%=      5-min Rain = 0
KSB1 082055Z 26003KT 07/04 A3026 RMK A01 T00660041  RH  084%=      5-min Rain = 0
KSB1 082056Z 25003KT 07/04 A3026 RMK A01 T00670040  RH  083%=      5-min Rain = 0
KSB1 082057Z 26003KT 07/04 A3026 RMK A01 T00660039  RH  083%=      5-min Rain = 0
KSB1 082058Z 27002KT 07/04 A3027 RMK A01 T00660040  RH  084%=      5-min Rain = 0
KSB1 082059Z 24002KT 07/04 A3027 RMK A01 T00650039  RH  083%=      5-min Rain = 0
KSB1 082100Z 23004KT 07/04 A3026 RMK A01 T00650040  RH  084%=      5-min Rain = 0
KSB1 082101Z 24004KT 07/04 A3026 RMK A01 T00650041  RH  084%=      5-min Rain = 0
KSB1 082102Z 23004KT 07/04 A3026 RMK A01 T00650041  RH  084%=      5-min Rain = 0
KSB1 082103Z 23003KT 07/04 A3026 RMK A01 T00650041  RH  085%=      5-min Rain = 0
KSB1 082104Z 24004KT 07/04 A3026 RMK A01 T00650042  RH  085%=      5-min Rain = 0
KSB1 082105Z 26002KT 07/04 A3026 RMK A01 T00650042  RH  085%=      5-min Rain = 0
KSB1 082106Z 26003KT 07/04 A3026 RMK A01 T00660042  RH  085%=      5-min Rain = 0
KSB1 082107Z 26003KT 07/04 A3026 RMK A01 T00650041  RH  085%=      5-min Rain = 0
KSB1 082108Z 26003KT 07/04 A3026 RMK A01 T00660041  RH  084%=      5-min Rain = 0
KSB1 082109Z 26002KT 07/04 A3026 RMK A01 T00660041  RH  084%=      5-min Rain = 0
KSB1 082110Z 25002KT 07/04 A3026 RMK A01 T00660041  RH  084%=      5-min Rain = 0
KSB1 082111Z 26002KT 07/04 A3026 RMK A01 T00660042  RH  085%=      5-min Rain = 0
KSB1 082112Z 27005KT 07/04 A3026 RMK A01 T00670044  RH  086%=      5-min Rain = 0
KSB1 082113Z 27005KT 07/04 A3026 RMK A01 T00670043  RH  085%=      5-min Rain = 0
KSB1 082114Z 26004KT 07/04 A3026 RMK A01 T00660043  RH  085%=      5-min Rain = 0
KSB1 082115Z 27003KT 07/04 A3026 RMK A01 T00670044  RH  085%=      5-min Rain = 0
KSB1 082116Z 25003KT 07/04 A3026 RMK A01 T00670044  RH  086%=      5-min Rain = 0
KSB1 082117Z 26004KT 07/05 A3026 RMK A01 T00670046  RH  086%=      5-min Rain = 0
KSB1 082118Z 26004KT 07/05 A3026 RMK A01 T00680047  RH  086%=      5-min Rain = 0
KSB1 082119Z 27004KT 07/05 A3026 RMK A01 T00680045  RH  085%=      5-min Rain = 0
KSB1 082120Z 27005KT 07/05 A3026 RMK A01 T00680046  RH  086%=      5-min Rain = 0
KSB1 082121Z 28006KT 07/05 A3026 RMK A01 T00690046  RH  086%=      5-min Rain = 0
KSB1 082122Z 27006KT 07/05 A3026 RMK A01 T00680046  RH  086%=      5-min Rain = 0
KSB1 082123Z 28005KT 07/05 A3026 RMK A01 T00680047  RH  086%=      5-min Rain = 0
KSB1 082124Z 28004KT 07/05 A3026 RMK A01 T00690047  RH  086%=      5-min Rain = 0
KSB1 082125Z 28005KT 07/05 A3026 RMK A01 T00690047  RH  086%=      5-min Rain = 0
KSB1 082126Z 29005KT 07/05 A3026 RMK A01 T00690047  RH  086%=      5-min Rain = 0
KSB1 082127Z 28004KT 07/05 A3026 RMK A01 T00690046  RH  085%=      5-min Rain = 0
KSB1 082128Z 27004KT 07/05 A3026 RMK A01 T00690046  RH  085%=      5-min Rain = 0
KSB1 082129Z 26005KT 07/05 A3026 RMK A01 T00690047  RH  086%=      5-min Rain = 0
KSB1 082130Z 26004KT 07/05 A3026 RMK A01 T00690046  RH  085%=      5-min Rain = 0
KSB1 082131Z 27004KT 07/05 A3026 RMK A01 T00680046  RH  086%=      5-min Rain = 0
KSB1 082132Z 28003KT 07/05 A3026 RMK A01 T00680047  RH  086%=      5-min Rain = 0
KSB1 082133Z 27004KT 07/05 A3026 RMK A01 T00680046  RH  086%=      5-min Rain = 0
KSB1 082134Z 28005KT 07/05 A3026 RMK A01 T00680046  RH  086%=      5-min Rain = 0
KSB1 082135Z 31005KT 07/05 A3026 RMK A01 T00680046  RH  085%=      5-min Rain = 0
KSB1 082136Z 31004KT 07/05 A3026 RMK A01 T00690046  RH  085%=      5-min Rain = 0
KSB1 082137Z 28004KT 07/05 A3026 RMK A01 T00680045  RH  085%=      5-min Rain = 0
KSB1 082138Z 28003KT 07/05 A3026 RMK A01 T00680046  RH  086%=      5-min Rain = 0
KSB1 082139Z 30003KT 07/05 A3026 RMK A01 T00680046  RH  086%=      5-min Rain = 0
KSB1 082140Z 31004KT 07/05 A3026 RMK A01 T00680045  RH  085%=      5-min Rain = 0
KSB1 082141Z 30003KT 07/05 A3026 RMK A01 T00690046  RH  085%=      5-min Rain = 0
KSB1 082142Z 31003KT 07/05 A3026 RMK A01 T00700048  RH  086%=      5-min Rain = 0
KSB1 082143Z 34002KT 07/05 A3026 RMK A01 T00700047  RH  085%=      5-min Rain = 0
KSB1 082144Z 30002KT 07/05 A3026 RMK A01 T00700047  RH  085%=      5-min Rain = 0
KSB1 082145Z 30003KT 07/05 A3026 RMK A01 T00700047  RH  085%=      5-min Rain = 0
KSB1 082146Z 28004KT 07/05 A3026 RMK A01 T00700047  RH  085%=      5-min Rain = 0
KSB1 082147Z 30004KT 07/05 A3026 RMK A01 T00700048  RH  085%=      5-min Rain = 0
KSB1 082148Z 31004KT 07/05 A3026 RMK A01 T00710048  RH  085%=      5-min Rain = 0
KSB1 082149Z 31003KT 07/05 A3026 RMK A01 T00710048  RH  085%=      5-min Rain = 0
KSB1 082150Z 32004KT 07/05 A3026 RMK A01 T00710047  RH  084%=      5-min Rain = 0
KSB1 082151Z 30004KT 07/05 A3026 RMK A01 T00710045  RH  083%=      5-min Rain = 0
KSB1 082152Z 30004KT 07/05 A3026 RMK A01 T00710046  RH  084%=      5-min Rain = 0
KSB1 082153Z 30005KT 07/05 A3026 RMK A01 T00710046  RH  084%=      5-min Rain = 0
KSB1 082154Z 28004KT 07/05 A3026 RMK A01 T00710045  RH  084%=      5-min Rain = 0
KSB1 082155Z 28004KT 07/05 A3026 RMK A01 T00710046  RH  084%=      5-min Rain = 0
KSB1 082156Z 27003KT 07/05 A3026 RMK A01 T00710046  RH  084%=      5-min Rain = 0
KSB1 082157Z 28005KT 07/05 A3026 RMK A01 T00710047  RH  085%=      5-min Rain = 0
KSB1 082158Z 28004KT 07/05 A3026 RMK A01 T00710045  RH  084%=      5-min Rain = 0
KSB1 082159Z 27005KT 07/05 A3026 RMK A01 T00710045  RH  083%=      5-min Rain = 0
KSB1 082200Z 30005KT 07/04 A3026 RMK A01 T00710044  RH  083%=      5-min Rain = 0
KSB1 082201Z 30005KT 07/05 A3026 RMK A01 T00720045  RH  083%=      5-min Rain = 0
KSB1 082202Z 30005KT 07/05 A3026 RMK A01 T00720045  RH  083%=      5-min Rain = 0
KSB1 082203Z 28004KT 07/05 A3026 RMK A01 T00730046  RH  083%=      5-min Rain = 0
KSB1 082204Z 28005KT 07/05 A3026 RMK A01 T00740047  RH  083%=      5-min Rain = 0
KSB1 082205Z 30005KT 07/05 A3026 RMK A01 T00740046  RH  082%=      5-min Rain = 0
KSB1 082206Z 30004KT 07/05 A3026 RMK A01 T00740045  RH  082%=      5-min Rain = 0
KSB1 082207Z 30004KT 07/05 A3026 RMK A01 T00740045  RH  082%=      5-min Rain = 0
KSB1 082208Z 29005KT 08/05 A3026 RMK A01 T00750046  RH  082%=      5-min Rain = 0
KSB1 082209Z 29005KT 08/04 A3026 RMK A01 T00750044  RH  081%=      5-min Rain = 0
KSB1 082210Z 30005KT 08/04 A3026 RMK A01 T00750043  RH  080%=      5-min Rain = 0
KSB1 082211Z 29004KT 08/04 A3026 RMK A01 T00750043  RH  080%=      5-min Rain = 0
KSB1 082212Z 29006KT 08/05 A3026 RMK A01 T00760045  RH  081%=      5-min Rain = 0
KSB1 082213Z 28003KT 08/05 A3026 RMK A01 T00760045  RH  081%=      5-min Rain = 0
KSB1 082214Z 31004KT 08/05 A3026 RMK A01 T00760046  RH  081%=      5-min Rain = 0
KSB1 082215Z 31005KT 08/04 A3026 RMK A01 T00760044  RH  080%=      5-min Rain = 0
KSB1 082216Z 31005KT 08/04 A3026 RMK A01 T00760044  RH  080%=      5-min Rain = 0
KSB1 082217Z 30005KT 08/04 A3026 RMK A01 T00760044  RH  080%=      5-min Rain = 0
KSB1 082218Z 30004KT 08/04 A3026 RMK A01 T00760043  RH  079%=      5-min Rain = 0
KSB1 082219Z 31006KT 08/04 A3026 RMK A01 T00760043  RH  080%=      5-min Rain = 0
KSB1 082220Z 31006KT 08/04 A3026 RMK A01 T00760042  RH  079%=      5-min Rain = 0
KSB1 082221Z 31006KT 08/04 A3026 RMK A01 T00760043  RH  079%=      5-min Rain = 0
KSB1 082222Z 30007KT 08/04 A3026 RMK A01 T00770042  RH  079%=      5-min Rain = 0
KSB1 082223Z 30010KT 08/04 A3026 RMK A01 T00760041  RH  078%=      5-min Rain = 0
KSB1 082224Z 30008KT 08/04 A3026 RMK A01 T00760039  RH  078%=      5-min Rain = 0
KSB1 082225Z 31008KT 08/04 A3026 RMK A01 T00750039  RH  078%=      5-min Rain = 0
KSB1 082226Z 31006KT 08/04 A3026 RMK A01 T00750039  RH  078%=      5-min Rain = 0
KSB1 082227Z 31007KT 07/04 A3026 RMK A01 T00740038  RH  078%=      5-min Rain = 0
KSB1 082228Z 31008KT 07/04 A3026 RMK A01 T00740041  RH  079%=      5-min Rain = 0
KSB1 082229Z 31006KT 08/04 A3026 RMK A01 T00750042  RH  079%=      5-min Rain = 0
KSB1 082230Z 31006KT 08/04 A3026 RMK A01 T00750042  RH  080%=      5-min Rain = 0
KSB1 082231Z 31009KT 08/04 A3026 RMK A01 T00750042  RH  079%=      5-min Rain = 0
KSB1 082232Z 30008KT 08/04 A3026 RMK A01 T00750040  RH  079%=      5-min Rain = 0
KSB1 082233Z 30008KT 08/04 A3026 RMK A01 T00750040  RH  079%=      5-min Rain = 0
KSB1 082234Z 31007KT 08/04 A3026 RMK A01 T00750040  RH  079%=      5-min Rain = 0
KSB1 082235Z 30007KT 07/04 A3027 RMK A01 T00740040  RH  079%=      5-min Rain = 0
KSB1 082236Z 31006KT 07/04 A3027 RMK A01 T00740042  RH  080%=      5-min Rain = 0
KSB1 082237Z 31007KT 08/04 A3027 RMK A01 T00750041  RH  079%=      5-min Rain = 0
KSB1 082238Z 31006KT 08/04 A3027 RMK A01 T00750042  RH  080%=      5-min Rain = 0
KSB1 082239Z 31006KT 08/04 A3027 RMK A01 T00750042  RH  079%=      5-min Rain = 0
KSB1 082240Z 31007KT 08/04 A3027 RMK A01 T00760043  RH  080%=      5-min Rain = 0
KSB1 082241Z 31007KT 08/04 A3027 RMK A01 T00760042  RH  079%=      5-min Rain = 0
KSB1 082242Z 31008KT 08/04 A3027 RMK A01 T00750041  RH  079%=      5-min Rain = 0
KSB1 082243Z 31007KT 08/04 A3027 RMK A01 T00750041  RH  079%=      5-min Rain = 0
KSB1 082244Z 32007KT 08/04 A3027 RMK A01 T00750041  RH  079%=      5-min Rain = 0
KSB1 082245Z 31007KT 08/04 A3027 RMK A01 T00750041  RH  079%=      5-min Rain = 0
KSB1 082246Z 31005KT 08/04 A3027 RMK A01 T00750042  RH  080%=      5-min Rain = 0
KSB1 082247Z 30005KT 08/04 A3027 RMK A01 T00750043  RH  080%=      5-min Rain = 0
KSB1 082248Z 30005KT 08/04 A3027 RMK A01 T00760043  RH  080%=      5-min Rain = 0
KSB1 082249Z 30007KT 08/04 A3027 RMK A01 T00760043  RH  079%=      5-min Rain = 0
KSB1 082250Z 31007KT 08/04 A3027 RMK A01 T00750041  RH  079%=      5-min Rain = 0
KSB1 082251Z 31005KT 08/04 A3027 RMK A01 T00750042  RH  080%=      5-min Rain = 0
KSB1 082252Z 32005KT 08/04 A3027 RMK A01 T00750041  RH  079%=      5-min Rain = 0
KSB1 082253Z 32006KT 08/04 A3027 RMK A01 T00750042  RH  080%=      5-min Rain = 0
KSB1 082254Z 32005KT 08/04 A3027 RMK A01 T00750041  RH  079%=      5-min Rain = 0
KSB1 082255Z 33005KT 08/04 A3027 RMK A01 T00750042  RH  079%=      5-min Rain = 0
KSB1 082256Z 31006KT 08/04 A3027 RMK A01 T00750043  RH  080%=      5-min Rain = 0
KSB1 082257Z 32006KT 08/04 A3027 RMK A01 T00750043  RH  080%=      5-min Rain = 0
KSB1 082258Z 32006KT 08/04 A3027 RMK A01 T00750043  RH  080%=      5-min Rain = 0
KSB1 082259Z 33005KT 08/04 A3027 RMK A01 T00750043  RH  080%=      5-min Rain = 0
KSB1 082300Z 32005KT 08/04 A3027 RMK A01 T00750044  RH  081%=      5-min Rain = 0
KSB1 082301Z 32005KT 08/05 A3027 RMK A01 T00750045  RH  081%=      5-min Rain = 0
KSB1 082302Z 31005KT 08/04 A3027 RMK A01 T00760044  RH  081%=      5-min Rain = 0
KSB1 082303Z 31004KT 08/04 A3027 RMK A01 T00760043  RH  080%=      5-min Rain = 0
KSB1 082304Z 31004KT 08/04 A3027 RMK A01 T00760043  RH  080%=      5-min Rain = 0
KSB1 082305Z 31004KT 08/04 A3027 RMK A01 T00760042  RH  079%=      5-min Rain = 0
KSB1 082306Z 31004KT 08/04 A3027 RMK A01 T00760043  RH  080%=      5-min Rain = 0
KSB1 082307Z 31004KT 08/04 A3027 RMK A01 T00760043  RH  080%=      5-min Rain = 0
KSB1 082308Z 33004KT 08/04 A3027 RMK A01 T00760043  RH  080%=      5-min Rain = 0
KSB1 082309Z 31004KT 08/04 A3027 RMK A01 T00760044  RH  080%=      5-min Rain = 0
KSB1 082310Z 32005KT 08/04 A3027 RMK A01 T00760044  RH  080%=      5-min Rain = 0
KSB1 082311Z 31006KT 08/04 A3027 RMK A01 T00760042  RH  079%=      5-min Rain = 0
KSB1 082312Z 30006KT 08/04 A3027 RMK A01 T00760042  RH  079%=      5-min Rain = 0
KSB1 082313Z 30006KT 08/04 A3027 RMK A01 T00760042  RH  079%=      5-min Rain = 0
KSB1 082314Z 30005KT 08/04 A3027 RMK A01 T00760042  RH  079%=      5-min Rain = 0
KSB1 082315Z 31004KT 08/04 A3027 RMK A01 T00760043  RH  079%=      5-min Rain = 0
KSB1 082316Z 32005KT 08/04 A3027 RMK A01 T00770044  RH  080%=      5-min Rain = 0
KSB1 082317Z 30004KT 08/04 A3027 RMK A01 T00780044  RH  079%=      5-min Rain = 0
KSB1 082318Z 31004KT 08/04 A3027 RMK A01 T00780044  RH  079%=      5-min Rain = 0
KSB1 082319Z 31005KT 08/04 A3027 RMK A01 T00790044  RH  078%=      5-min Rain = 0
KSB1 082320Z 31004KT 08/04 A3027 RMK A01 T00800044  RH  078%=      5-min Rain = 0
KSB1 082321Z 32005KT 08/04 A3027 RMK A01 T00800044  RH  078%=      5-min Rain = 0
KSB1 082322Z 31006KT 08/04 A3027 RMK A01 T00790043  RH  078%=      5-min Rain = 0
KSB1 082323Z 32005KT 08/04 A3027 RMK A01 T00790042  RH  078%=      5-min Rain = 0
KSB1 082324Z 33004KT 08/04 A3027 RMK A01 T00780041  RH  078%=      5-min Rain = 0
KSB1 082325Z 32003KT 08/04 A3027 RMK A01 T00780041  RH  078%=      5-min Rain = 0
KSB1 082326Z 31004KT 08/04 A3027 RMK A01 T00780042  RH  078%=      5-min Rain = 0
KSB1 082327Z 31004KT 08/04 A3027 RMK A01 T00790044  RH  078%=      5-min Rain = 0
KSB1 082328Z 31004KT 08/04 A3027 RMK A01 T00800043  RH  077%=      5-min Rain = 0
KSB1 082329Z 32004KT 08/04 A3027 RMK A01 T00800044  RH  078%=      5-min Rain = 0
KSB1 082330Z 31004KT 08/04 A3027 RMK A01 T00790044  RH  078%=      5-min Rain = 0
KSB1 082331Z 30004KT 08/04 A3027 RMK A01 T00790044  RH  078%=      5-min Rain = 0
KSB1 082332Z 31003KT 08/04 A3027 RMK A01 T00780042  RH  078%=      5-min Rain = 0
KSB1 082333Z 30003KT 08/04 A3027 RMK A01 T00780044  RH  079%=      5-min Rain = 0
KSB1 082334Z 31003KT 08/04 A3027 RMK A01 T00780044  RH  079%=      5-min Rain = 0
KSB1 082335Z 32006KT 08/05 A3027 RMK A01 T00780045  RH  079%=      5-min Rain = 0
KSB1 082336Z 31006KT 08/04 A3027 RMK A01 T00780044  RH  079%=      5-min Rain = 0
KSB1 082337Z 31005KT 08/04 A3027 RMK A01 T00780043  RH  079%=      5-min Rain = 0
KSB1 082338Z 32005KT 08/04 A3027 RMK A01 T00780044  RH  079%=      5-min Rain = 0
KSB1 082339Z 31005KT 08/04 A3027 RMK A01 T00780044  RH  079%=      5-min Rain = 0
KSB1 082340Z 30004KT 08/05 A3027 RMK A01 T00780045  RH  079%=      5-min Rain = 0
KSB1 082341Z 31003KT 08/04 A3027 RMK A01 T00780044  RH  079%=      5-min Rain = 0
KSB1 082342Z 31003KT 08/04 A3027 RMK A01 T00780043  RH  078%=      5-min Rain = 0
KSB1 082343Z 29002KT 08/04 A3027 RMK A01 T00780044  RH  079%=      5-min Rain = 0
KSB1 082344Z 28002KT 08/05 A3027 RMK A01 T00790045  RH  079%=      5-min Rain = 0
KSB1 082345Z 30002KT 08/05 A3027 RMK A01 T00790045  RH  079%=      5-min Rain = 0
KSB1 082346Z 28002KT 08/05 A3027 RMK A01 T00790045  RH  079%=      5-min Rain = 0
KSB1 082347Z 27003KT 08/05 A3027 RMK A01 T00790045  RH  079%=      5-min Rain = 0
KSB1 082348Z 28004KT 08/05 A3027 RMK A01 T00790045  RH  079%=      5-min Rain = 0
KSB1 082349Z 27003KT 08/05 A3027 RMK A01 T00790046  RH  080%=      5-min Rain = 0
KSB1 082350Z 30004KT 08/05 A3027 RMK A01 T00790046  RH  080%=      5-min Rain = 0
KSB1 082351Z 33002KT 08/05 A3027 RMK A01 T00780046  RH  080%=      5-min Rain = 0
KSB1 082352Z 29003KT 08/05 A3027 RMK A01 T00780047  RH  081%=      5-min Rain = 0
KSB1 082353Z 29005KT 08/05 A3027 RMK A01 T00770045  RH  080%=      5-min Rain = 0
KSB1 082354Z 29003KT 08/04 A3027 RMK A01 T00770043  RH  079%=      5-min Rain = 0
KSB1 082355Z 28003KT 08/04 A3027 RMK A01 T00760043  RH  080%=      5-min Rain = 0
KSB1 082356Z 29004KT 08/04 A3027 RMK A01 T00760044  RH  080%=      5-min Rain = 0
KSB1 082357Z 29005KT 08/05 A3027 RMK A01 T00760045  RH  081%=      5-min Rain = 0
KSB1 082358Z 29004KT 08/04 A3027 RMK A01 T00760044  RH  080%=      5-min Rain = 0
KSB1 082359Z 28005KT 08/05 A3027 RMK A01 T00760045  RH  080%=      5-min Rain = 0
KSB1 090000Z 30005KT 08/04 A3027 RMK A01 T00760044  RH  080%=      5-min Rain = 0
KSB1 090001Z 31004KT 08/04 A3027 RMK A01 T00750043  RH  080%=      5-min Rain = 0
KSB1 090002Z 30003KT 08/04 A3027 RMK A01 T00750044  RH  081%=      5-min Rain = 0
KSB1 090003Z 29003KT 08/04 A3027 RMK A01 T00750044  RH  081%=      5-min Rain = 0
KSB1 090004Z 28003KT 08/04 A3027 RMK A01 T00750043  RH  080%=      5-min Rain = 0
KSB1 090005Z 30002KT 08/04 A3027 RMK A01 T00750044  RH  081%=      5-min Rain = 0
KSB1 090006Z 28002KT 08/05 A3027 RMK A01 T00750045  RH  081%=      5-min Rain = 0
KSB1 090007Z 31002KT 07/04 A3027 RMK A01 T00740044  RH  082%=      5-min Rain = 0
KSB1 090008Z 30002KT 07/05 A3027 RMK A01 T00740045  RH  082%=      5-min Rain = 0
KSB1 090009Z 30003KT 07/04 A3027 RMK A01 T00740044  RH  082%=      5-min Rain = 0
KSB1 090010Z 30003KT 07/04 A3027 RMK A01 T00740044  RH  081%=      5-min Rain = 0
KSB1 090011Z 31003KT 07/04 A3027 RMK A01 T00740044  RH  082%=      5-min Rain = 0
KSB1 090012Z 31003KT 07/04 A3027 RMK A01 T00740044  RH  081%=      5-min Rain = 0
KSB1 090013Z 30003KT 07/04 A3027 RMK A01 T00740043  RH  081%=      5-min Rain = 0
KSB1 090014Z 28002KT 07/04 A3027 RMK A01 T00740043  RH  081%=      5-min Rain = 0
KSB1 090015Z 30002KT 07/04 A3027 RMK A01 T00730044  RH  082%=      5-min Rain = 0
KSB1 090016Z 31001KT 07/05 A3027 RMK A01 T00730045  RH  082%=      5-min Rain = 0
KSB1 090017Z 35001KT 07/04 A3027 RMK A01 T00730044  RH  082%=      5-min Rain = 0
KSB1 090018Z 34000KT 07/04 A3027 RMK A01 T00720043  RH  082%=      5-min Rain = 0
KSB1 090019Z 35001KT 07/04 A3027 RMK A01 T00720043  RH  082%=      5-min Rain = 0
KSB1 090020Z 34001KT 07/04 A3027 RMK A01 T00720043  RH  082%=      5-min Rain = 0
KSB1 090021Z 03000KT 07/04 A3027 RMK A01 T00720044  RH  082%=      5-min Rain = 0
KSB1 090022Z 02000KT 07/04 A3027 RMK A01 T00710043  RH  083%=      5-min Rain = 0
KSB1 090023Z 33002KT 07/04 A3027 RMK A01 T00710042  RH  082%=      5-min Rain = 0
KSB1 090024Z 35003KT 07/04 A3027 RMK A01 T00710042  RH  082%=      5-min Rain = 0
KSB1 090025Z 35002KT 07/04 A3027 RMK A01 T00710043  RH  082%=      5-min Rain = 0
KSB1 090026Z 31004KT 07/04 A3027 RMK A01 T00700043  RH  083%=      5-min Rain = 0
KSB1 090027Z 30003KT 07/04 A3027 RMK A01 T00700043  RH  083%=      5-min Rain = 0
KSB1 090028Z 30004KT 07/04 A3027 RMK A01 T00690042  RH  083%=      5-min Rain = 0
KSB1 090029Z 30004KT 07/04 A3027 RMK A01 T00690042  RH  083%=      5-min Rain = 0
KSB1 090030Z 30003KT 07/04 A3027 RMK A01 T00690041  RH  082%=      5-min Rain = 0
KSB1 090031Z 31005KT 07/04 A3027 RMK A01 T00690041  RH  082%=      5-min Rain = 0
KSB1 090032Z 30004KT 07/04 A3027 RMK A01 T00690041  RH  082%=      5-min Rain = 0
KSB1 090033Z 29004KT 07/04 A3027 RMK A01 T00700041  RH  082%=      5-min Rain = 0
KSB1 090034Z 28004KT 07/04 A3027 RMK A01 T00700041  RH  082%=      5-min Rain = 0
KSB1 090035Z 28005KT 07/04 A3027 RMK A01 T00690040  RH  082%=      5-min Rain = 0
KSB1 090036Z 24004KT 07/04 A3027 RMK A01 T00700041  RH  082%=      5-min Rain = 0
KSB1 090037Z 20004KT 07/04 A3027 RMK A01 T00680040  RH  082%=      5-min Rain = 0
KSB1 090038Z 22003KT 07/04 A3028 RMK A01 T00660039  RH  083%=      5-min Rain = 0
KSB1 090039Z 19003KT 07/04 A3027 RMK A01 T00650039  RH  084%=      5-min Rain = 0
KSB1 090040Z 23003KT 06/04 A3028 RMK A01 T00630039  RH  084%=      5-min Rain = 0
KSB1 090041Z 22002KT 06/04 A3028 RMK A01 T00620038  RH  085%=      5-min Rain = 0
KSB1 090042Z 23003KT 06/04 A3028 RMK A01 T00610038  RH  085%=      5-min Rain = 0
KSB1 090043Z 23002KT 06/04 A3028 RMK A01 T00600038  RH  086%=      5-min Rain = 0
KSB1 090044Z 24003KT 06/04 A3028 RMK A01 T00600038  RH  086%=      5-min Rain = 0
KSB1 090045Z 25002KT 06/04 A3028 RMK A01 T00600038  RH  086%=      5-min Rain = 0
KSB1 090046Z 29002KT 06/04 A3028 RMK A01 T00600038  RH  086%=      5-min Rain = 0
KSB1 090047Z 27002KT 06/04 A3028 RMK A01 T00590039  RH  087%=      5-min Rain = 0
KSB1 090048Z 29004KT 06/04 A3028 RMK A01 T00590039  RH  087%=      5-min Rain = 0
KSB1 090049Z 29007KT 06/04 A3028 RMK A01 T00600040  RH  087%=      5-min Rain = 0
KSB1 090050Z 29007KT 06/04 A3028 RMK A01 T00630042  RH  087%=      5-min Rain = 0
KSB1 090051Z 29007KT 07/04 A3028 RMK A01 T00660042  RH  085%=      5-min Rain = 0
KSB1 090052Z 30008KT 07/04 A3028 RMK A01 T00680042  RH  083%=      5-min Rain = 0
KSB1 090053Z 29007KT 07/04 A3028 RMK A01 T00690042  RH  083%=      5-min Rain = 0
KSB1 090054Z 30008KT 07/04 A3028 RMK A01 T00700042  RH  082%=      5-min Rain = 0
KSB1 090055Z 30011KT 07/04 A3028 RMK A01 T00700041  RH  082%=      5-min Rain = 0
KSB1 090056Z 30010KT 07/04 A3028 RMK A01 T00700041  RH  082%=      5-min Rain = 0
KSB1 090057Z 30009KT 07/04 A3028 RMK A01 T00710041  RH  082%=      5-min Rain = 0
KSB1 090058Z 30010KT 07/04 A3028 RMK A01 T00700041  RH  081%=      5-min Rain = 0
KSB1 090059Z 30009KT 07/04 A3028 RMK A01 T00710041  RH  081%=      5-min Rain = 0
KSB1 090100Z 30009KT 07/04 A3028 RMK A01 T00700040  RH  081%=      5-min Rain = 0
KSB1 090101Z 30011KT 07/04 A3028 RMK A01 T00710040  RH  081%=      5-min Rain = 0
KSB1 090102Z 31010KT 07/04 A3028 RMK A01 T00700039  RH  081%=      5-min Rain = 0
KSB1 090103Z 30010KT 07/04 A3028 RMK A01 T00700039  RH  080%=      5-min Rain = 0
KSB1 090104Z 30009KT 07/04 A3028 RMK A01 T00710039  RH  080%=      5-min Rain = 0
KSB1 090105Z 30009KT 07/04 A3028 RMK A01 T00710039  RH  081%=      5-min Rain = 0
KSB1 090106Z 30011KT 07/04 A3028 RMK A01 T00700039  RH  081%=      5-min Rain = 0
KSB1 090107Z 30010KT 07/04 A3028 RMK A01 T00700040  RH  081%=      5-min Rain = 0
KSB1 090108Z 30010KT 07/04 A3028 RMK A01 T00700040  RH  081%=      5-min Rain = 0
KSB1 090109Z 30010KT 07/04 A3028 RMK A01 T00700040  RH  081%=      5-min Rain = 0
KSB1 090110Z 30011KT 07/04 A3028 RMK A01 T00700041  RH  081%=      5-min Rain = 0
KSB1 090111Z 31010KT 07/04 A3028 RMK A01 T00700041  RH  082%=      5-min Rain = 0
KSB1 090112Z 30010KT 07/04 A3028 RMK A01 T00710041  RH  082%=      5-min Rain = 0
KSB1 090113Z 30011KT 07/04 A3028 RMK A01 T00710041  RH  082%=      5-min Rain = 0
KSB1 090114Z 30008KT 07/04 A3028 RMK A01 T00710042  RH  082%=      5-min Rain = 0
KSB1 090115Z 30009KT 07/04 A3028 RMK A01 T00710042  RH  082%=      5-min Rain = 0
KSB1 090116Z 30010KT 07/04 A3028 RMK A01 T00700042  RH  082%=      5-min Rain = 0
KSB1 090117Z 31010KT 07/04 A3028 RMK A01 T00700042  RH  082%=      5-min Rain = 0
KSB1 090118Z 31008KT 07/04 A3028 RMK A01 T00700042  RH  082%=      5-min Rain = 0
KSB1 090119Z 31008KT 07/04 A3028 RMK A01 T00700042  RH  082%=      5-min Rain = 0
KSB1 090120Z 31009KT 07/04 A3028 RMK A01 T00700042  RH  082%=      5-min Rain = 0
KSB1 090121Z 31010KT 07/04 A3028 RMK A01 T00700042  RH  083%=      5-min Rain = 0
KSB1 090122Z 32009KT 07/04 A3029 RMK A01 T00690042  RH  083%=      5-min Rain = 0
KSB1 090123Z 31010KT 07/04 A3029 RMK A01 T00700042  RH  083%=      5-min Rain = 0
KSB1 090124Z 31009KT 07/04 A3029 RMK A01 T00700042  RH  083%=      5-min Rain = 0
KSB1 090125Z 31011KT 07/04 A3029 RMK A01 T00700042  RH  083%=      5-min Rain = 0
KSB1 090126Z 31011KT 07/04 A3029 RMK A01 T00690042  RH  083%=      5-min Rain = 0
KSB1 090127Z 31011KT 07/04 A3029 RMK A01 T00700042  RH  083%=      5-min Rain = 0
KSB1 090128Z 31009KT 07/04 A3029 RMK A01 T00700042  RH  082%=      5-min Rain = 0
KSB1 090129Z 31009KT 07/04 A3029 RMK A01 T00700042  RH  083%=      5-min Rain = 0
KSB1 090130Z 31010KT 07/04 A3029 RMK A01 T00700042  RH  083%=      5-min Rain = 0
KSB1 090131Z 30009KT 07/04 A3029 RMK A01 T00690042  RH  083%=      5-min Rain = 0
KSB1 090132Z 31011KT 07/04 A3029 RMK A01 T00690043  RH  083%=      5-min Rain = 0
KSB1 090133Z 31011KT 07/04 A3029 RMK A01 T00690042  RH  083%=      5-min Rain = 0
KSB1 090134Z 31009KT 07/04 A3029 RMK A01 T00690042  RH  083%=      5-min Rain = 0
KSB1 090135Z 31010KT 07/04 A3029 RMK A01 T00690042  RH  083%=      5-min Rain = 0
KSB1 090136Z 31011KT 07/04 A3029 RMK A01 T00690043  RH  083%=      5-min Rain = 0
KSB1 090137Z 30010KT 07/04 A3029 RMK A01 T00690043  RH  083%=      5-min Rain = 0
KSB1 090138Z 30010KT 07/04 A3029 RMK A01 T00690042  RH  083%=      5-min Rain = 0
KSB1 090139Z 30009KT 07/04 A3029 RMK A01 T00690042  RH  083%=      5-min Rain = 0
KSB1 090140Z 30008KT 07/04 A3029 RMK A01 T00690042  RH  083%=      5-min Rain = 0
KSB1 090141Z 30009KT 07/04 A3029 RMK A01 T00680043  RH  084%=      5-min Rain = 0
KSB1 090142Z 30009KT 07/04 A3029 RMK A01 T00680043  RH  084%=      5-min Rain = 0
KSB1 090143Z 30009KT 07/04 A3029 RMK A01 T00680043  RH  084%=      5-min Rain = 0
KSB1 090144Z 29009KT 07/04 A3029 RMK A01 T00680043  RH  084%=      5-min Rain = 0
KSB1 090145Z 29008KT 07/04 A3029 RMK A01 T00680043  RH  084%=      5-min Rain = 0
KSB1 090146Z 29008KT 07/04 A3029 RMK A01 T00670042  RH  084%=      5-min Rain = 0
KSB1 090147Z 30009KT 07/04 A3029 RMK A01 T00670043  RH  085%=      5-min Rain = 0
KSB1 090148Z 30008KT 07/04 A3029 RMK A01 T00670043  RH  085%=      5-min Rain = 0
KSB1 090149Z 29008KT 07/04 A3029 RMK A01 T00660043  RH  085%=      5-min Rain = 0
KSB1 090150Z 29008KT 07/04 A3029 RMK A01 T00660043  RH  085%=      5-min Rain = 0
KSB1 090151Z 29007KT 07/04 A3029 RMK A01 T00660043  RH  085%=      5-min Rain = 0
KSB1 090152Z 29008KT 07/04 A3029 RMK A01 T00660043  RH  085%=      5-min Rain = 0
KSB1 090153Z 29009KT 07/04 A3029 RMK A01 T00660043  RH  085%=      5-min Rain = 0
KSB1 090154Z 29007KT 07/04 A3029 RMK A01 T00660043  RH  085%=      5-min Rain = 0
KSB1 090155Z 29007KT 07/04 A3029 RMK A01 T00660043  RH  085%=      5-min Rain = 0
KSB1 090156Z 29007KT 07/04 A3029 RMK A01 T00660043  RH  086%=      5-min Rain = 0
KSB1 090157Z 29007KT 07/04 A3029 RMK A01 T00650043  RH  086%=      5-min Rain = 0
KSB1 090158Z 28008KT 07/04 A3029 RMK A01 T00660044  RH  086%=      5-min Rain = 0
KSB1 090159Z 29007KT 07/04 A3029 RMK A01 T00650043  RH  086%=      5-min Rain = 0
KSB1 090200Z 29006KT 07/04 A3029 RMK A01 T00650043  RH  086%=      5-min Rain = 0
KSB1 090201Z 29007KT 07/04 A3029 RMK A01 T00650043  RH  086%=      5-min Rain = 0
KSB1 090202Z 30007KT 07/04 A3029 RMK A01 T00650043  RH  086%=      5-min Rain = 0
KSB1 090203Z 30008KT 07/04 A3029 RMK A01 T00650043  RH  086%=      5-min Rain = 0
KSB1 090204Z 30008KT 07/04 A3029 RMK A01 T00660044  RH  086%=      5-min Rain = 0
KSB1 090205Z 29008KT 07/04 A3029 RMK A01 T00660044  RH  086%=      5-min Rain = 0
KSB1 090206Z 30008KT 07/04 A3029 RMK A01 T00660044  RH  086%=      5-min Rain = 0
KSB1 090207Z 30008KT 07/04 A3029 RMK A01 T00660043  RH  086%=      5-min Rain = 0
KSB1 090208Z 30008KT 07/04 A3029 RMK A01 T00660044  RH  086%=      5-min Rain = 0
KSB1 090209Z 30008KT 07/04 A3029 RMK A01 T00660044  RH  086%=      5-min Rain = 0
KSB1 090210Z 29008KT 07/04 A3029 RMK A01 T00660044  RH  086%=      5-min Rain = 0
KSB1 090211Z 29008KT 07/04 A3029 RMK A01 T00660044  RH  086%=      5-min Rain = 0
KSB1 090212Z 29008KT 07/04 A3029 RMK A01 T00660044  RH  086%=      5-min Rain = 0
KSB1 090213Z 29008KT 07/04 A3029 RMK A01 T00660044  RH  086%=      5-min Rain = 0
KSB1 090214Z 29008KT 07/04 A3029 RMK A01 T00660044  RH  086%=      5-min Rain = 0
KSB1 090215Z 29008KT 07/05 A3029 RMK A01 T00660045  RH  086%=      5-min Rain = 0
KSB1 090216Z 29007KT 07/04 A3029 RMK A01 T00660044  RH  086%=      5-min Rain = 0
KSB1 090217Z 29007KT 07/04 A3029 RMK A01 T00650044  RH  086%=      5-min Rain = 0
KSB1 090218Z 29007KT 07/04 A3029 RMK A01 T00650044  RH  086%=      5-min Rain = 0
KSB1 090219Z 29007KT 07/04 A3029 RMK A01 T00650044  RH  086%=      5-min Rain = 0
KSB1 090220Z 29007KT 07/04 A3029 RMK A01 T00650044  RH  086%=      5-min Rain = 0
KSB1 090221Z 29007KT 07/04 A3029 RMK A01 T00650044  RH  087%=      5-min Rain = 0
KSB1 090222Z 29006KT 07/04 A3029 RMK A01 T00650044  RH  087%=      5-min Rain = 0
KSB1 090223Z 30006KT 07/04 A3029 RMK A01 T00650044  RH  087%=      5-min Rain = 0
KSB1 090224Z 29006KT 07/04 A3029 RMK A01 T00650044  RH  087%=      5-min Rain = 0
KSB1 090225Z 30005KT 07/05 A3029 RMK A01 T00650045  RH  087%=      5-min Rain = 0
KSB1 090226Z 30005KT 07/04 A3029 RMK A01 T00650044  RH  087%=      5-min Rain = 0
KSB1 090227Z 30005KT 07/04 A3029 RMK A01 T00650044  RH  087%=      5-min Rain = 0
KSB1 090228Z 30004KT 07/04 A3029 RMK A01 T00650044  RH  087%=      5-min Rain = 0
KSB1 090229Z 30005KT 07/04 A303 RMK A01 T00650044  RH  087%=      5-min Rain = 0
KSB1 090230Z 30005KT 07/04 A303 RMK A01 T00650044  RH  087%=      5-min Rain = 0
KSB1 090231Z 29005KT 06/04 A303 RMK A01 T00640044  RH  087%=      5-min Rain = 0
KSB1 090232Z 29006KT 06/04 A303 RMK A01 T00640044  RH  087%=      5-min Rain = 0
KSB1 090233Z 30006KT 06/04 A303 RMK A01 T00640044  RH  087%=      5-min Rain = 0
KSB1 090234Z 29006KT 06/04 A303 RMK A01 T00640044  RH  087%=      5-min Rain = 0
KSB1 090235Z 29005KT 06/04 A303 RMK A01 T00640044  RH  087%=      5-min Rain = 0
KSB1 090236Z 28005KT 06/04 A303 RMK A01 T00640044  RH  087%=      5-min Rain = 0
KSB1 090237Z 28005KT 06/04 A303 RMK A01 T00630043  RH  087%=      5-min Rain = 0
KSB1 090238Z 28006KT 06/04 A303 RMK A01 T00630043  RH  087%=      5-min Rain = 0
KSB1 090239Z 28006KT 06/04 A303 RMK A01 T00620043  RH  088%=      5-min Rain = 0
KSB1 090240Z 29006KT 06/04 A303 RMK A01 T00620043  RH  088%=      5-min Rain = 0
KSB1 090241Z 28004KT 06/04 A303 RMK A01 T00620043  RH  088%=      5-min Rain = 0
KSB1 090242Z 28004KT 06/04 A303 RMK A01 T00620043  RH  088%=      5-min Rain = 0
KSB1 090243Z 28004KT 06/04 A303 RMK A01 T00610042  RH  088%=      5-min Rain = 0
KSB1 090244Z 27004KT 06/04 A303 RMK A01 T00600042  RH  088%=      5-min Rain = 0
KSB1 090245Z 27004KT 06/04 A303 RMK A01 T00590040  RH  088%=      5-min Rain = 0
KSB1 090246Z 27004KT 06/04 A303 RMK A01 T00570039  RH  088%=      5-min Rain = 0
KSB1 090247Z 27004KT 06/04 A303 RMK A01 T00550037  RH  088%=      5-min Rain = 0
KSB1 090248Z 27003KT 05/04 A303 RMK A01 T00520035  RH  088%=      5-min Rain = 0
KSB1 090249Z 24003KT 05/03 A303 RMK A01 T00480030  RH  088%=      5-min Rain = 0
KSB1 090250Z 24003KT 05/03 A303 RMK A01 T00450029  RH  089%=      5-min Rain = 0
KSB1 090251Z 25003KT 04/03 A303 RMK A01 T00440028  RH  090%=      5-min Rain = 0
KSB1 090252Z 23003KT 04/03 A303 RMK A01 T00430029  RH  091%=      5-min Rain = 0
KSB1 090253Z 23003KT 04/03 A303 RMK A01 T00420029  RH  092%=      5-min Rain = 0
KSB1 090254Z 23003KT 04/03 A303 RMK A01 T00410030  RH  092%=      5-min Rain = 0
KSB1 090255Z 23003KT 04/03 A303 RMK A01 T00410031  RH  093%=      5-min Rain = 0
KSB1 090256Z 24003KT 04/03 A303 RMK A01 T00410031  RH  093%=      5-min Rain = 0
KSB1 090257Z 25003KT 04/03 A303 RMK A01 T00410032  RH  094%=      5-min Rain = 0
KSB1 090258Z 26004KT 04/03 A303 RMK A01 T00420033  RH  094%=      5-min Rain = 0
KSB1 090259Z 28003KT 04/04 A303 RMK A01 T00430035  RH  094%=      5-min Rain = 0
KSB1 090300Z 28004KT 04/04 A303 RMK A01 T00440036  RH  095%=      5-min Rain = 0
KSB1 090301Z 28004KT 05/04 A303 RMK A01 T00460038  RH  095%=      5-min Rain = 0
KSB1 090302Z 29004KT 05/04 A303 RMK A01 T00480040  RH  095%=      5-min Rain = 0
KSB1 090303Z 29003KT 05/04 A303 RMK A01 T00500042  RH  095%=      5-min Rain = 0
KSB1 090304Z 28003KT 05/04 A303 RMK A01 T00510043  RH  094%=      5-min Rain = 0
KSB1 090305Z 28004KT 05/04 A303 RMK A01 T00530044  RH  094%=      5-min Rain = 0
KSB1 090306Z 28004KT 05/04 A303 RMK A01 T00530043  RH  093%=      5-min Rain = 0
KSB1 090307Z 28004KT 05/04 A303 RMK A01 T00540043  RH  092%=      5-min Rain = 0
KSB1 090308Z 28004KT 06/04 A303 RMK A01 T00550043  RH  092%=      5-min Rain = 0
KSB1 090309Z 28004KT 06/04 A303 RMK A01 T00560043  RH  092%=      5-min Rain = 0
KSB1 090310Z 28004KT 06/04 A303 RMK A01 T00570044  RH  091%=      5-min Rain = 0
KSB1 090311Z 29004KT 06/04 A303 RMK A01 T00580043  RH  091%=      5-min Rain = 0
KSB1 090312Z 29004KT 06/04 A303 RMK A01 T00580043  RH  090%=      5-min Rain = 0
KSB1 090313Z 29004KT 06/04 A303 RMK A01 T00580043  RH  090%=      5-min Rain = 0
KSB1 090314Z 29004KT 06/04 A303 RMK A01 T00580042  RH  089%=      5-min Rain = 0
KSB1 090315Z 30004KT 06/04 A303 RMK A01 T00570042  RH  090%=      5-min Rain = 0
KSB1 090316Z 29004KT 06/04 A303 RMK A01 T00570041  RH  090%=      5-min Rain = 0
KSB1 090317Z 29004KT 06/04 A303 RMK A01 T00570042  RH  090%=      5-min Rain = 0
KSB1 090318Z 29005KT 06/04 A303 RMK A01 T00560041  RH  090%=      5-min Rain = 0
KSB1 090319Z 29005KT 06/04 A303 RMK A01 T00560042  RH  090%=      5-min Rain = 0
KSB1 090320Z 29005KT 06/04 A303 RMK A01 T00560042  RH  090%=      5-min Rain = 0
KSB1 090321Z 30005KT 06/04 A303 RMK A01 T00570043  RH  090%=      5-min Rain = 0
KSB1 090322Z 30004KT 06/04 A303 RMK A01 T00580043  RH  090%=      5-min Rain = 0
KSB1 090323Z 30004KT 06/04 A303 RMK A01 T00580043  RH  090%=      5-min Rain = 0
KSB1 090324Z 31005KT 06/04 A303 RMK A01 T00590044  RH  090%=      5-min Rain = 0
KSB1 090325Z 31006KT 06/04 A303 RMK A01 T00590043  RH  090%=      5-min Rain = 0
KSB1 090326Z 31006KT 06/04 A303 RMK A01 T00600044  RH  089%=      5-min Rain = 0
KSB1 090327Z 32006KT 06/04 A303 RMK A01 T00600043  RH  089%=      5-min Rain = 0
KSB1 090328Z 32006KT 06/04 A303 RMK A01 T00600043  RH  089%=      5-min Rain = 0
KSB1 090329Z 32007KT 06/04 A303 RMK A01 T00600043  RH  089%=      5-min Rain = 0
KSB1 090330Z 32007KT 06/04 A303 RMK A01 T00610043  RH  089%=      5-min Rain = 0
KSB1 090331Z 32006KT 06/04 A303 RMK A01 T00600043  RH  089%=      5-min Rain = 0
KSB1 090332Z 32006KT 06/04 A303 RMK A01 T00600043  RH  089%=      5-min Rain = 0
KSB1 090333Z 32006KT 06/04 A303 RMK A01 T00600043  RH  089%=      5-min Rain = 0
KSB1 090334Z 32005KT 06/04 A303 RMK A01 T00590042  RH  089%=      5-min Rain = 0
KSB1 090335Z 33005KT 06/04 A303 RMK A01 T00570040  RH  089%=      5-min Rain = 0
KSB1 090336Z 33005KT 06/04 A303 RMK A01 T00560040  RH  090%=      5-min Rain = 0
KSB1 090337Z 33005KT 06/04 A303 RMK A01 T00550041  RH  090%=      5-min Rain = 0
KSB1 090338Z 33005KT 06/04 A303 RMK A01 T00550041  RH  091%=      5-min Rain = 0
KSB1 090339Z 33005KT 05/04 A3031 RMK A01 T00540041  RH  091%=      5-min Rain = 0
KSB1 090340Z 33005KT 05/04 A3031 RMK A01 T00530040  RH  091%=      5-min Rain = 0
KSB1 090341Z 33005KT 05/04 A3031 RMK A01 T00530041  RH  092%=      5-min Rain = 0
KSB1 090342Z 33005KT 05/04 A3031 RMK A01 T00540042  RH  092%=      5-min Rain = 0
KSB1 090343Z 33005KT 05/04 A3031 RMK A01 T00540042  RH  092%=      5-min Rain = 0
KSB1 090344Z 33005KT 06/04 A3031 RMK A01 T00550042  RH  092%=      5-min Rain = 0
KSB1 090345Z 33005KT 06/04 A3031 RMK A01 T00550042  RH  092%=      5-min Rain = 0
KSB1 090346Z 33005KT 06/04 A3031 RMK A01 T00550042  RH  091%=      5-min Rain = 0
KSB1 090347Z 32005KT 06/04 A3031 RMK A01 T00550041  RH  091%=      5-min Rain = 0
KSB1 090348Z 32005KT 06/04 A3031 RMK A01 T00550042  RH  091%=      5-min Rain = 0
KSB1 090349Z 32005KT 06/04 A3031 RMK A01 T00550042  RH  091%=      5-min Rain = 0
KSB1 090350Z 32004KT 06/04 A3031 RMK A01 T00550042  RH  091%=      5-min Rain = 0
KSB1 090351Z 32004KT 06/04 A3031 RMK A01 T00560042  RH  091%=      5-min Rain = 0
KSB1 090352Z 33003KT 06/04 A3031 RMK A01 T00560043  RH  091%=      5-min Rain = 0
KSB1 090353Z 32004KT 06/04 A3031 RMK A01 T00560042  RH  091%=      5-min Rain = 0
KSB1 090354Z 32006KT 06/04 A3031 RMK A01 T00560042  RH  090%=      5-min Rain = 0
KSB1 090355Z 32007KT 06/04 A3031 RMK A01 T00560041  RH  090%=      5-min Rain = 0
KSB1 090356Z 32006KT 06/04 A3031 RMK A01 T00550041  RH  091%=      5-min Rain = 0
KSB1 090357Z 32006KT 06/04 A3031 RMK A01 T00560042  RH  091%=      5-min Rain = 0
KSB1 090358Z 32006KT 06/04 A3031 RMK A01 T00560042  RH  091%=      5-min Rain = 0
KSB1 090359Z 32005KT 06/04 A3031 RMK A01 T00560042  RH  091%=      5-min Rain = 0
KSB1 090400Z 32005KT 06/04 A3031 RMK A01 T00570043  RH  091%=      5-min Rain = 0
KSB1 090401Z 32005KT 06/04 A3031 RMK A01 T00570043  RH  090%=      5-min Rain = 0
KSB1 090402Z 33005KT 06/04 A3031 RMK A01 T00570042  RH  090%=      5-min Rain = 0
KSB1 090403Z 33006KT 06/04 A3031 RMK A01 T00560042  RH  090%=      5-min Rain = 0
KSB1 090404Z 33006KT 06/04 A3031 RMK A01 T00560042  RH  091%=      5-min Rain = 0
KSB1 090405Z 33005KT 06/04 A3031 RMK A01 T00560042  RH  091%=      5-min Rain = 0
KSB1 090406Z 33005KT 06/04 A3031 RMK A01 T00560041  RH  091%=      5-min Rain = 0
KSB1 090407Z 32004KT 06/04 A3031 RMK A01 T00560042  RH  091%=      5-min Rain = 0
KSB1 090408Z 32005KT 06/04 A3031 RMK A01 T00560042  RH  091%=      5-min Rain = 0
KSB1 090409Z 32005KT 06/04 A3031 RMK A01 T00560042  RH  091%=      5-min Rain = 0
KSB1 090410Z 32005KT 06/04 A3031 RMK A01 T00550041  RH  091%=      5-min Rain = 0
KSB1 090411Z 32006KT 06/04 A3031 RMK A01 T00550041  RH  091%=      5-min Rain = 0
KSB1 090412Z 32005KT 06/04 A3031 RMK A01 T00550041  RH  091%=      5-min Rain = 0
KSB1 090413Z 32005KT 06/04 A3031 RMK A01 T00550041  RH  091%=      5-min Rain = 0
KSB1 090414Z 32005KT 06/04 A3031 RMK A01 T00560042  RH  091%=      5-min Rain = 0
KSB1 090415Z 32005KT 06/04 A3031 RMK A01 T00560042  RH  091%=      5-min Rain = 0
KSB1 090416Z 32005KT 06/04 A3031 RMK A01 T00560042  RH  091%=      5-min Rain = 0
KSB1 090417Z 32005KT 06/04 A3031 RMK A01 T00560041  RH  090%=      5-min Rain = 0
KSB1 090418Z 33005KT 06/04 A3031 RMK A01 T00550041  RH  090%=      5-min Rain = 0
KSB1 090419Z 33005KT 06/04 A3031 RMK A01 T00550041  RH  091%=      5-min Rain = 0
KSB1 090420Z 33005KT 06/04 A3031 RMK A01 T00550041  RH  091%=      5-min Rain = 0
KSB1 090421Z 33005KT 06/04 A3031 RMK A01 T00550041  RH  091%=      5-min Rain = 0
KSB1 090422Z 33005KT 05/04 A3031 RMK A01 T00540040  RH  091%=      5-min Rain = 0
KSB1 090423Z 33005KT 05/04 A3031 RMK A01 T00530040  RH  091%=      5-min Rain = 0
KSB1 090424Z 32005KT 05/04 A3031 RMK A01 T00530040  RH  091%=      5-min Rain = 0
KSB1 090425Z 33005KT 05/04 A3031 RMK A01 T00530040  RH  092%=      5-min Rain = 0
KSB1 090426Z 33005KT 05/04 A3031 RMK A01 T00530040  RH  092%=      5-min Rain = 0
KSB1 090427Z 32005KT 05/04 A3031 RMK A01 T00530041  RH  092%=      5-min Rain = 0
KSB1 090428Z 32004KT 05/04 A3031 RMK A01 T00530041  RH  092%=      5-min Rain = 0
KSB1 090429Z 32005KT 05/04 A3031 RMK A01 T00540042  RH  092%=      5-min Rain = 0
KSB1 090430Z 33005KT 06/04 A3031 RMK A01 T00550042  RH  092%=      5-min Rain = 0
KSB1 090431Z 33004KT 05/04 A3031 RMK A01 T00540041  RH  091%=      5-min Rain = 0
KSB1 090432Z 33004KT 05/04 A3031 RMK A01 T00540041  RH  091%=      5-min Rain = 0
KSB1 090433Z 32004KT 05/04 A3031 RMK A01 T00540041  RH  091%=      5-min Rain = 0
KSB1 090434Z 32004KT 05/04 A3031 RMK A01 T00540041  RH  091%=      5-min Rain = 0
KSB1 090435Z 32004KT 05/04 A3031 RMK A01 T00530041  RH  091%=      5-min Rain = 0
KSB1 090436Z 32004KT 05/04 A3031 RMK A01 T00530041  RH  091%=      5-min Rain = 0
KSB1 090437Z 32003KT 05/04 A3031 RMK A01 T00530041  RH  091%=      5-min Rain = 0
KSB1 090438Z 31002KT 05/04 A3031 RMK A01 T00530040  RH  091%=      5-min Rain = 0
KSB1 090439Z 29001KT 05/04 A3031 RMK A01 T00520038  RH  091%=      5-min Rain = 0
KSB1 090440Z 29002KT 05/04 A3031 RMK A01 T00520039  RH  092%=      5-min Rain = 0
KSB1 090441Z 29001KT 05/04 A3031 RMK A01 T00520040  RH  092%=      5-min Rain = 0
KSB1 090442Z 29001KT 05/04 A3031 RMK A01 T00530041  RH  092%=      5-min Rain = 0
KSB1 090443Z 29001KT 05/04 A3031 RMK A01 T00540041  RH  092%=      5-min Rain = 0
KSB1 090444Z 29001KT 05/04 A3031 RMK A01 T00540042  RH  092%=      5-min Rain = 0
KSB1 090445Z 30000KT 05/04 A3032 RMK A01 T00540041  RH  091%=      5-min Rain = 0
KSB1 090446Z 00000KT 05/04 A3032 RMK A01 T00530039  RH  090%=      5-min Rain = 0
KSB1 090447Z 07000KT 05/03 A3032 RMK A01 T00500034  RH  089%=      5-min Rain = 0
KSB1 090448Z 07000KT 05/03 A3032 RMK A01 T00470031  RH  090%=      5-min Rain = 0
KSB1 090449Z 07000KT 04/03 A3032 RMK A01 T00440030  RH  090%=      5-min Rain = 0
KSB1 090450Z 07001KT 04/03 A3032 RMK A01 T00410027  RH  090%=      5-min Rain = 0
KSB1 090451Z 10001KT 04/03 A3032 RMK A01 T00380025  RH  091%=      5-min Rain = 0
KSB1 090452Z 10002KT 04/03 A3032 RMK A01 T00370025  RH  092%=      5-min Rain = 0
KSB1 090453Z 09002KT 04/03 A3032 RMK A01 T00360025  RH  093%=      5-min Rain = 0
KSB1 090454Z 09002KT 04/03 A3032 RMK A01 T00360027  RH  094%=      5-min Rain = 0
KSB1 090455Z 09002KT 04/03 A3032 RMK A01 T00370029  RH  095%=      5-min Rain = 0
KSB1 090456Z 07001KT 04/03 A3032 RMK A01 T00370030  RH  095%=      5-min Rain = 0
KSB1 090457Z 08001KT 04/03 A3032 RMK A01 T00380031  RH  095%=      5-min Rain = 0
KSB1 090458Z 08001KT 04/03 A3032 RMK A01 T00380031  RH  095%=      5-min Rain = 0
KSB1 090459Z 09001KT 04/03 A3032 RMK A01 T00390032  RH  096%=      5-min Rain = 0
KSB1 090500Z 09001KT 04/03 A3032 RMK A01 T00390033  RH  096%=      5-min Rain = 0
KSB1 090501Z 09001KT 04/03 A3032 RMK A01 T00390033  RH  096%=      5-min Rain = 0
KSB1 090502Z 08002KT 04/03 A3032 RMK A01 T00390033  RH  096%=      5-min Rain = 0
KSB1 090503Z 08002KT 04/03 A3032 RMK A01 T00380032  RH  096%=      5-min Rain = 0
KSB1 090504Z 07002KT 04/03 A3032 RMK A01 T00380031  RH  096%=      5-min Rain = 0
KSB1 090505Z 09002KT 04/03 A3032 RMK A01 T00380031  RH  096%=      5-min Rain = 0
KSB1 090506Z 08002KT 04/03 A3032 RMK A01 T00380031  RH  096%=      5-min Rain = 0
KSB1 090507Z 08001KT 04/03 A3032 RMK A01 T00380032  RH  096%=      5-min Rain = 0
KSB1 090508Z 07001KT 04/03 A3032 RMK A01 T00380032  RH  096%=      5-min Rain = 0
KSB1 090509Z 08002KT 04/03 A3032 RMK A01 T00380032  RH  096%=      5-min Rain = 0
KSB1 090510Z 08001KT 04/03 A3032 RMK A01 T00380033  RH  096%=      5-min Rain = 0
KSB1 090511Z 07002KT 04/03 A3032 RMK A01 T00380033  RH  096%=      5-min Rain = 0
KSB1 090512Z 07002KT 04/03 A3032 RMK A01 T00380033  RH  096%=      5-min Rain = 0
KSB1 090513Z 07002KT 04/03 A3032 RMK A01 T00380033  RH  096%=      5-min Rain = 0
KSB1 090514Z 05002KT 04/03 A3032 RMK A01 T00390033  RH  096%=      5-min Rain = 0
KSB1 090515Z 04002KT 04/03 A3032 RMK A01 T00390033  RH  096%=      5-min Rain = 0
KSB1 090516Z 04002KT 04/03 A3032 RMK A01 T00390033  RH  096%=      5-min Rain = 0
KSB1 090517Z 04001KT 04/03 A3032 RMK A01 T00390034  RH  096%=      5-min Rain = 0
KSB1 090518Z 04001KT 04/04 A3032 RMK A01 T00400035  RH  096%=      5-min Rain = 0
KSB1 090519Z 03001KT 04/04 A3032 RMK A01 T00410036  RH  097%=      5-min Rain = 0
KSB1 090520Z 03001KT 04/04 A3032 RMK A01 T00420037  RH  097%=      5-min Rain = 0
KSB1 090521Z 03001KT 04/04 A3032 RMK A01 T00430038  RH  096%=      5-min Rain = 0
KSB1 090522Z 04001KT 04/04 A3032 RMK A01 T00440038  RH  096%=      5-min Rain = 0
KSB1 090523Z 03002KT 04/04 A3032 RMK A01 T00440039  RH  096%=      5-min Rain = 0
KSB1 090524Z 02002KT 04/04 A3032 RMK A01 T00440038  RH  096%=      5-min Rain = 0
KSB1 090525Z 03002KT 04/04 A3032 RMK A01 T00440038  RH  096%=      5-min Rain = 0
KSB1 090526Z 02002KT 04/04 A3032 RMK A01 T00440038  RH  096%=      5-min Rain = 0
KSB1 090527Z 03001KT 05/04 A3032 RMK A01 T00450038  RH  096%=      5-min Rain = 0
KSB1 090528Z 02000KT 05/04 A3032 RMK A01 T00460039  RH  095%=      5-min Rain = 0
KSB1 090529Z 02000KT 05/04 A3032 RMK A01 T00470040  RH  095%=      5-min Rain = 0
KSB1 090530Z 02001KT 05/04 A3032 RMK A01 T00470039  RH  095%=      5-min Rain = 0
KSB1 090531Z 02001KT 05/04 A3032 RMK A01 T00460036  RH  094%=      5-min Rain = 0
KSB1 090532Z 03001KT 04/03 A3032 RMK A01 T00440034  RH  094%=      5-min Rain = 0
KSB1 090533Z 03002KT 04/04 A3032 RMK A01 T00440035  RH  094%=      5-min Rain = 0
KSB1 090534Z 03002KT 04/04 A3032 RMK A01 T00440035  RH  094%=      5-min Rain = 0
KSB1 090535Z 04002KT 05/04 A3032 RMK A01 T00450036  RH  094%=      5-min Rain = 0
KSB1 090536Z 04002KT 05/04 A3032 RMK A01 T00450037  RH  094%=      5-min Rain = 0
KSB1 090537Z 03002KT 05/04 A3032 RMK A01 T00460037  RH  094%=      5-min Rain = 0
KSB1 090538Z 04002KT 05/04 A3032 RMK A01 T00460037  RH  094%=      5-min Rain = 0
KSB1 090539Z 05002KT 05/04 A3032 RMK A01 T00460037  RH  094%=      5-min Rain = 0
KSB1 090540Z 04001KT 05/04 A3032 RMK A01 T00450036  RH  094%=      5-min Rain = 0
KSB1 090541Z 04001KT 05/04 A3032 RMK A01 T00450036  RH  094%=      5-min Rain = 0
KSB1 090542Z 04001KT 05/04 A3032 RMK A01 T00450036  RH  094%=      5-min Rain = 0
KSB1 090543Z 04000KT 05/04 A3032 RMK A01 T00450036  RH  094%=      5-min Rain = 0
KSB1 090544Z 19001KT 04/03 A3032 RMK A01 T00430033  RH  093%=      5-min Rain = 0
KSB1 090545Z 19002KT 04/03 A3032 RMK A01 T00370025  RH  092%=      5-min Rain = 0
KSB1 090546Z 19002KT 04/02 A3032 RMK A01 T00350023  RH  092%=      5-min Rain = 0
KSB1 090547Z 18001KT 04/03 A3032 RMK A01 T00350026  RH  093%=      5-min Rain = 0
KSB1 090548Z 17001KT 04/03 A3032 RMK A01 T00360027  RH  094%=      5-min Rain = 0
KSB1 090549Z 20000KT 03/02 A3032 RMK A01 T00320023  RH  093%=      5-min Rain = 0
KSB1 090550Z 19001KT 03/02 A3032 RMK A01 T00320023  RH  094%=      5-min Rain = 0
KSB1 090551Z 16000KT 04/03 A3032 RMK A01 T00350028  RH  095%=      5-min Rain = 0
KSB1 090552Z 16001KT 04/03 A3032 RMK A01 T00360030  RH  096%=      5-min Rain = 0
KSB1 090553Z 14000KT 04/03 A3032 RMK A01 T00350029  RH  096%=      5-min Rain = 0
KSB1 090554Z 07001KT 04/03 A3032 RMK A01 T00350029  RH  096%=      5-min Rain = 0
KSB1 090555Z 08001KT 04/03 A3032 RMK A01 T00380032  RH  096%=      5-min Rain = 0
KSB1 090556Z 09001KT 04/04 A3032 RMK A01 T00400035  RH  096%=      5-min Rain = 0
KSB1 090557Z 11000KT 04/04 A3032 RMK A01 T00410036  RH  097%=      5-min Rain = 0
KSB1 090558Z 12001KT 04/04 A3032 RMK A01 T00410036  RH  096%=      5-min Rain = 0
KSB1 090559Z 15002KT 04/04 A3032 RMK A01 T00410036  RH  096%=      5-min Rain = 0

Page generated in 0.0814 seconds.